Wetterdaten: Samstag, 13.11.2021
Datum Zeit Temp. Aussen Temp. o. S. Temp +5cm Feuchte Auss Luftdruck Regen Sonnenschein Regendauer Solar Windben Empfang
13.11.2021 00:00 5,6 C 4,4 C 2,8 C 92 % 1012,4 hPa 0,0 l/m 0 min 0 min 0 W/m 6,4 km/h (2 Bft) 95,74 %
13.11.2021 00:02 5,5 C 4,4 C 2,8 C 92 % 1012,4 hPa 0,0 l/m 0 min 0 min 0 W/m 16,1 km/h (3 Bft) 96,97 %
13.11.2021 00:04 5,5 C 4,4 C 2,8 C 92 % 1012,5 hPa 0,0 l/m 0 min 0 min 0 W/m 19,3 km/h (3 Bft) 100,00 %
13.11.2021 00:08 5,3 C 4,4 C 2,8 C 92 % 1012,6 hPa 0,0 l/m 0 min 0 min 0 W/m 12,9 km/h (3 Bft) 98,94 %
13.11.2021 00:10 5,3 C 4,4 C 2,8 C 92 % 1012,7 hPa 0,0 l/m 0 min 0 min 0 W/m 6,4 km/h (2 Bft) 100,00 %
13.11.2021 00:12 5,3 C 4,4 C 2,2 C 92 % 1012,7 hPa 0,0 l/m 0 min 0 min 0 W/m 16,1 km/h (3 Bft) 95,74 %
13.11.2021 00:14 5,2 C 4,4 C 2,2 C 92 % 1012,8 hPa 0,0 l/m 0 min 0 min 0 W/m 12,9 km/h (3 Bft) 100,00 %
13.11.2021 00:16 5,1 C 4,4 C 2,2 C 92 % 1012,7 hPa 0,0 l/m 0 min 0 min 0 W/m 12,9 km/h (3 Bft) 97,87 %
13.11.2021 00:18 5,1 C 4,4 C 2,2 C 92 % 1012,7 hPa 0,0 l/m 0 min 0 min 0 W/m 6,4 km/h (2 Bft) 56,52 %
13.11.2021 00:20 5,1 C 4,4 C 2,2 C 92 % 1012,6 hPa 0,0 l/m 0 min 0 min 0 W/m 16,1 km/h (3 Bft) 100,00 %
13.11.2021 00:22 5,1 C 4,4 C 2,8 C 92 % 1012,6 hPa 0,0 l/m 0 min 0 min 0 W/m 16,1 km/h (3 Bft) 97,87 %
13.11.2021 00:24 5,1 C 4,4 C 2,8 C 92 % 1012,6 hPa 0,0 l/m 0 min 0 min 0 W/m 12,9 km/h (3 Bft) 100,00 %
13.11.2021 00:26 5,0 C 4,4 C 2,8 C 92 % 1012,6 hPa 0,0 l/m 0 min 0 min 0 W/m 16,1 km/h (3 Bft) 97,83 %
13.11.2021 00:28 5,1 C 4,4 C 2,8 C 92 % 1012,5 hPa 0,0 l/m 0 min 0 min 0 W/m 16,1 km/h (3 Bft) 100,00 %
13.11.2021 00:30 5,0 C 4,4 C 2,8 C 92 % 1012,4 hPa 0,0 l/m 0 min 0 min 0 W/m 16,1 km/h (3 Bft) 97,87 %
13.11.2021 00:32 5,0 C 4,4 C 2,8 C 92 % 1012,4 hPa 0,0 l/m 0 min 0 min 0 W/m 16,1 km/h (3 Bft) 95,74 %
13.11.2021 00:34 5,0 C 4,4 C 2,8 C 92 % 1012,4 hPa 0,0 l/m 0 min 0 min 0 W/m 16,1 km/h (3 Bft) 98,11 %
13.11.2021 00:36 5,0 C 4,4 C 2,8 C 92 % 1012,3 hPa 0,0 l/m 0 min 0 min 0 W/m 12,9 km/h (3 Bft) 97,87 %
13.11.2021 00:38 5,0 C 4,4 C 2,8 C 92 % 1012,3 hPa 0,0 l/m 0 min 0 min 0 W/m 16,1 km/h (3 Bft) 97,87 %
13.11.2021 00:40 5,0 C 4,4 C 2,8 C 92 % 1012,4 hPa 0,0 l/m 0 min 0 min 0 W/m 12,9 km/h (3 Bft) 97,83 %
13.11.2021 00:42 5,0 C 4,4 C 2,8 C 92 % 1012,4 hPa 0,0 l/m 0 min 0 min 0 W/m 16,1 km/h (3 Bft) 95,74 %
13.11.2021 00:44 5,0 C 4,4 C 2,8 C 92 % 1012,4 hPa 0,0 l/m 0 min 0 min 0 W/m 12,9 km/h (3 Bft) 95,74 %
13.11.2021 00:46 5,0 C 4,4 C 2,8 C 92 % 1012,4 hPa 0,0 l/m 0 min 0 min 0 W/m 16,1 km/h (3 Bft) 95,74 %
13.11.2021 00:48 5,0 C 4,4 C 2,8 C 92 % 1012,4 hPa 0,0 l/m 0 min 0 min 0 W/m 12,9 km/h (3 Bft) 95,74 %
13.11.2021 00:50 5,0 C 4,4 C 2,8 C 92 % 1012,4 hPa 0,0 l/m 0 min 0 min 0 W/m 12,9 km/h (3 Bft) 93,48 %
13.11.2021 00:52 5,0 C 4,4 C 2,8 C 92 % 1012,4 hPa 0,0 l/m 0 min 0 min 0 W/m 16,1 km/h (3 Bft) 95,74 %
13.11.2021 00:54 5,0 C 4,4 C 2,8 C 92 % 1012,4 hPa 0,0 l/m 0 min 0 min 0 W/m 16,1 km/h (3 Bft) 93,62 %
13.11.2021 00:56 5,0 C 4,4 C 2,8 C 92 % 1012,4 hPa 0,0 l/m 0 min 0 min 0 W/m 22,5 km/h (4 Bft) 95,74 %
13.11.2021 00:58 5,0 C 4,4 C 2,8 C 92 % 1012,4 hPa 0,0 l/m 0 min 0 min 0 W/m 16,1 km/h (3 Bft) 95,74 %
13.11.2021 01:00 5,0 C 4,4 C 2,8 C 92 % 1012,4 hPa 0,0 l/m 0 min 0 min 0 W/m 16,1 km/h (3 Bft) 93,62 %
13.11.2021 01:02 5,0 C 4,4 C 2,8 C 92 % 1012,4 hPa 0,0 l/m 0 min 0 min 0 W/m 12,9 km/h (3 Bft) 97,83 %
13.11.2021 01:04 5,0 C 4,4 C 2,8 C 92 % 1012,4 hPa 0,0 l/m 0 min 0 min 0 W/m 16,1 km/h (3 Bft) 95,74 %
13.11.2021 01:06 5,0 C 4,4 C 2,8 C 92 % 1012,3 hPa 0,0 l/m 0 min 0 min 0 W/m 12,9 km/h (3 Bft) 97,87 %
13.11.2021 01:08 5,0 C 4,4 C 2,8 C 92 % 1012,4 hPa 0,0 l/m 0 min 0 min 0 W/m 22,5 km/h (4 Bft) 95,74 %
13.11.2021 01:10 5,0 C 4,4 C 2,8 C 92 % 1012,3 hPa 0,0 l/m 0 min 0 min 0 W/m 16,1 km/h (3 Bft) 97,87 %
13.11.2021 01:12 5,0 C 4,4 C 2,8 C 92 % 1012,3 hPa 0,0 l/m 0 min 0 min 0 W/m 22,5 km/h (4 Bft) 95,74 %
13.11.2021 01:14 5,0 C 4,4 C 2,8 C 92 % 1012,3 hPa 0,0 l/m 0 min 0 min 0 W/m 16,1 km/h (3 Bft) 97,83 %
13.11.2021 01:16 5,0 C 4,4 C 2,8 C 92 % 1012,3 hPa 0,0 l/m 0 min 0 min 0 W/m 12,9 km/h (3 Bft) 97,87 %
13.11.2021 01:18 5,0 C 4,4 C 2,8 C 92 % 1012,3 hPa 0,0 l/m 0 min 0 min 0 W/m 16,1 km/h (3 Bft) 95,74 %
13.11.2021 01:20 5,1 C 4,4 C 2,8 C 92 % 1012,4 hPa 0,0 l/m 0 min 0 min 0 W/m 19,3 km/h (3 Bft) 95,74 %
13.11.2021 01:22 5,1 C 4,4 C 2,8 C 92 % 1012,3 hPa 0,0 l/m 0 min 0 min 0 W/m 12,9 km/h (3 Bft) 97,87 %
13.11.2021 01:24 5,1 C 4,4 C 2,8 C 92 % 1012,3 hPa 0,0 l/m 0 min 0 min 0 W/m 16,1 km/h (3 Bft) 97,87 %
13.11.2021 01:26 5,1 C 4,4 C 2,8 C 92 % 1012,3 hPa 0,0 l/m 0 min 0 min 0 W/m 19,3 km/h (3 Bft) 100,00 %
13.11.2021 01:28 5,1 C 4,4 C 2,8 C 92 % 1012,3 hPa 0,0 l/m 0 min 0 min 0 W/m 19,3 km/h (3 Bft) 97,87 %
13.11.2021 01:30 5,1 C 4,4 C 2,8 C 93 % 1012,3 hPa 0,0 l/m 0 min 0 min 0 W/m 19,3 km/h (3 Bft) 100,00 %
13.11.2021 01:32 5,1 C 4,4 C 2,8 C 93 % 1012,3 hPa 0,0 l/m 0 min 0 min 0 W/m 12,9 km/h (3 Bft) 100,00 %
13.11.2021 01:34 5,2 C 4,4 C 2,8 C 93 % 1012,3 hPa 0,0 l/m 0 min 0 min 0 W/m 19,3 km/h (3 Bft) 95,74 %
13.11.2021 01:36 5,2 C 4,4 C 2,8 C 93 % 1012,3 hPa 0,0 l/m 0 min 0 min 0 W/m 16,1 km/h (3 Bft) 97,87 %
13.11.2021 01:38 5,2 C 4,4 C 2,8 C 93 % 1012,2 hPa 0,0 l/m 0 min 0 min 0 W/m 16,1 km/h (3 Bft) 100,00 %
13.11.2021 01:40 5,2 C 4,4 C 2,8 C 93 % 1012,2 hPa 0,0 l/m 0 min 0 min 0 W/m 16,1 km/h (3 Bft) 100,00 %
13.11.2021 01:42 5,3 C 4,4 C 2,8 C 93 % 1012,2 hPa 0,0 l/m 0 min 0 min 0 W/m 19,3 km/h (3 Bft) 100,00 %
13.11.2021 01:44 5,3 C 4,4 C 2,8 C 93 % 1012,1 hPa 0,0 l/m 0 min 0 min 0 W/m 12,9 km/h (3 Bft) 100,00 %
13.11.2021 01:46 5,3 C 4,4 C 2,8 C 93 % 1012,1 hPa 0,0 l/m 0 min 0 min 0 W/m 12,9 km/h (3 Bft) 100,00 %
13.11.2021 01:48 5,3 C 4,4 C 2,8 C 93 % 1012,1 hPa 0,0 l/m 0 min 0 min 0 W/m 12,9 km/h (3 Bft) 100,00 %
13.11.2021 01:50 5,3 C 4,4 C 2,8 C 93 % 1012,1 hPa 0,0 l/m 0 min 0 min 0 W/m 19,3 km/h (3 Bft) 100,00 %
13.11.2021 01:52 5,3 C 4,4 C 2,8 C 93 % 1012,1 hPa 0,0 l/m 0 min 0 min 0 W/m 16,1 km/h (3 Bft) 97,87 %
13.11.2021 01:54 5,3 C 4,4 C 2,8 C 93 % 1012,1 hPa 0,0 l/m 0 min 0 min 0 W/m 12,9 km/h (3 Bft) 97,87 %
13.11.2021 01:56 5,3 C 5,0 C 2,8 C 93 % 1012,0 hPa 0,0 l/m 0 min 0 min 0 W/m 16,1 km/h (3 Bft) 100,00 %
13.11.2021 01:58 5,3 C 5,0 C 2,8 C 93 % 1012,1 hPa 0,0 l/m 0 min 0 min 0 W/m 22,5 km/h (4 Bft) 100,00 %
13.11.2021 02:00 5,3 C 5,0 C 2,8 C 93 % 1012,0 hPa 0,0 l/m 0 min 0 min 0 W/m 16,1 km/h (3 Bft) 100,00 %
13.11.2021 02:02 5,3 C 5,0 C 2,8 C 93 % 1012,0 hPa 0,0 l/m 0 min 0 min 0 W/m 19,3 km/h (3 Bft) 100,00 %
13.11.2021 02:04 5,3 C 5,0 C 2,8 C 93 % 1012,0 hPa 0,0 l/m 0 min 0 min 0 W/m 12,9 km/h (3 Bft) 97,87 %
13.11.2021 02:06 5,3 C 5,0 C 2,8 C 93 % 1012,0 hPa 0,0 l/m 0 min 0 min 0 W/m 16,1 km/h (3 Bft) 100,00 %
13.11.2021 02:08 5,3 C 5,0 C 2,8 C 93 % 1012,0 hPa 0,0 l/m 0 min 0 min 0 W/m 16,1 km/h (3 Bft) 100,00 %
13.11.2021 02:10 5,3 C 5,0 C 2,8 C 93 % 1012,0 hPa 0,0 l/m 0 min 0 min 0 W/m 22,5 km/h (4 Bft) 100,00 %
13.11.2021 02:12 5,3 C 5,0 C 2,8 C 93 % 1012,0 hPa 0,0 l/m 0 min 0 min 0 W/m 19,3 km/h (3 Bft) 97,83 %
13.11.2021 02:14 5,3 C 5,0 C 2,8 C 93 % 1011,9 hPa 0,0 l/m 0 min 0 min 0 W/m 16,1 km/h (3 Bft) 97,87 %
13.11.2021 02:16 5,4 C 5,0 C 2,8 C 93 % 1011,9 hPa 0,0 l/m 0 min 0 min 0 W/m 16,1 km/h (3 Bft) 97,87 %
13.11.2021 02:18 5,4 C 5,0 C 2,8 C 93 % 1011,9 hPa 0,0 l/m 0 min 0 min 0 W/m 12,9 km/h (3 Bft) 97,87 %
13.11.2021 02:20 5,4 C 5,0 C 3,3 C 93 % 1011,9 hPa 0,0 l/m 0 min 0 min 0 W/m 16,1 km/h (3 Bft) 95,74 %
13.11.2021 02:22 5,4 C 5,0 C 3,3 C 93 % 1011,9 hPa 0,0 l/m 0 min 0 min 0 W/m 6,4 km/h (2 Bft) 97,87 %
13.11.2021 02:24 5,4 C 5,0 C 3,3 C 93 % 1011,9 hPa 0,0 l/m 0 min 0 min 0 W/m 12,9 km/h (3 Bft) 97,83 %
13.11.2021 02:26 5,4 C 5,0 C 3,3 C 93 % 1011,8 hPa 0,0 l/m 0 min 0 min 0 W/m 16,1 km/h (3 Bft) 93,62 %
13.11.2021 02:28 5,4 C 5,0 C 3,3 C 93 % 1011,7 hPa 0,0 l/m 0 min 0 min 0 W/m 12,9 km/h (3 Bft) 95,74 %
13.11.2021 02:30 5,4 C 5,0 C 2,8 C 93 % 1011,6 hPa 0,0 l/m 0 min 0 min 0 W/m 9,7 km/h (2 Bft) 95,74 %
13.11.2021 02:32 5,4 C 5,0 C 2,8 C 93 % 1011,6 hPa 0,0 l/m 0 min 0 min 0 W/m 12,9 km/h (3 Bft) 95,74 %
13.11.2021 02:34 5,4 C 5,0 C 2,8 C 93 % 1011,5 hPa 0,0 l/m 0 min 2 min 0 W/m 16,1 km/h (3 Bft) 95,74 %
13.11.2021 02:36 5,4 C 5,0 C 2,8 C 93 % 1011,5 hPa 0,0 l/m 0 min 2 min 0 W/m 12,9 km/h (3 Bft) 95,65 %
13.11.2021 02:38 5,4 C 4,4 C 2,8 C 93 % 1011,5 hPa 0,0 l/m 0 min 2 min 0 W/m 12,9 km/h (3 Bft) 95,74 %
13.11.2021 02:40 5,4 C 4,4 C 2,8 C 93 % 1011,5 hPa 0,2 l/m 0 min 2 min 0 W/m 12,9 km/h (3 Bft) 95,74 %
13.11.2021 02:42 5,4 C 4,4 C 2,8 C 93 % 1011,4 hPa 0,0 l/m 0 min 0 min 0 W/m 19,3 km/h (3 Bft) 95,74 %
13.11.2021 02:44 5,4 C 4,4 C 2,8 C 93 % 1011,4 hPa 0,0 l/m 0 min 0 min 0 W/m 16,1 km/h (3 Bft) 95,74 %
13.11.2021 02:46 5,4 C 4,4 C 2,8 C 94 % 1011,4 hPa 0,0 l/m 0 min 0 min 0 W/m 12,9 km/h (3 Bft) 93,62 %
13.11.2021 02:48 5,4 C 4,4 C 2,8 C 94 % 1011,3 hPa 0,0 l/m 0 min 0 min 0 W/m 19,3 km/h (3 Bft) 95,65 %
13.11.2021 02:50 5,4 C 4,4 C 2,8 C 94 % 1011,3 hPa 0,0 l/m 0 min 0 min 0 W/m 19,3 km/h (3 Bft) 91,49 %
13.11.2021 02:52 5,4 C 4,4 C 2,8 C 94 % 1011,2 hPa 0,0 l/m 0 min 0 min 0 W/m 16,1 km/h (3 Bft) 91,49 %
13.11.2021 02:54 5,4 C 4,4 C 2,8 C 94 % 1011,2 hPa 0,0 l/m 0 min 0 min 0 W/m 16,1 km/h (3 Bft) 93,62 %
13.11.2021 02:56 5,4 C 4,4 C 2,8 C 94 % 1011,2 hPa 0,0 l/m 0 min 0 min 0 W/m 16,1 km/h (3 Bft) 95,74 %
13.11.2021 02:58 5,4 C 4,4 C 2,8 C 94 % 1011,2 hPa 0,0 l/m 0 min 0 min 0 W/m 19,3 km/h (3 Bft) 95,74 %
13.11.2021 03:00 5,4 C 4,4 C 2,8 C 94 % 1011,1 hPa 0,0 l/m 0 min 0 min 0 W/m 16,1 km/h (3 Bft) 95,65 %
13.11.2021 03:02 5,5 C 5,0 C 2,8 C 94 % 1011,1 hPa 0,0 l/m 0 min 0 min 0 W/m 19,3 km/h (3 Bft) 100,00 %
13.11.2021 03:04 5,5 C 5,0 C 2,8 C 94 % 1011,0 hPa 0,0 l/m 0 min 0 min 0 W/m 16,1 km/h (3 Bft) 95,74 %
13.11.2021 03:06 5,5 C 5,0 C 2,8 C 94 % 1011,0 hPa 0,0 l/m 0 min 0 min 0 W/m 16,1 km/h (3 Bft) 93,62 %
13.11.2021 03:08 5,5 C 5,0 C 2,8 C 94 % 1011,0 hPa 0,0 l/m 0 min 0 min 0 W/m 12,9 km/h (3 Bft) 97,87 %
13.11.2021 03:10 5,5 C 5,0 C 2,8 C 94 % 1011,0 hPa 0,0 l/m 0 min 0 min 0 W/m 16,1 km/h (3 Bft) 97,87 %
13.11.2021 03:12 5,5 C 5,0 C 2,8 C 95 % 1011,0 hPa 0,0 l/m 0 min 0 min 0 W/m 12,9 km/h (3 Bft) 97,83 %
13.11.2021 03:14 5,5 C 5,0 C 3,3 C 95 % 1010,9 hPa 0,0 l/m 0 min 0 min 0 W/m 12,9 km/h (3 Bft) 97,87 %
13.11.2021 03:16 5,6 C 5,0 C 3,3 C 95 % 1010,9 hPa 0,0 l/m 0 min 0 min 0 W/m 16,1 km/h (3 Bft) 93,62 %
13.11.2021 03:18 5,6 C 5,0 C 3,3 C 95 % 1010,9 hPa 0,0 l/m 0 min 2 min 0 W/m 12,9 km/h (3 Bft) 97,87 %
13.11.2021 03:20 5,6 C 5,0 C 3,3 C 95 % 1010,9 hPa 0,0 l/m 0 min 0 min 0 W/m 19,3 km/h (3 Bft) 97,87 %
13.11.2021 03:22 5,6 C 5,0 C 3,3 C 95 % 1010,8 hPa 0,0 l/m 0 min 0 min 0 W/m 16,1 km/h (3 Bft) 95,74 %
13.11.2021 03:24 5,6 C 5,0 C 3,3 C 95 % 1010,7 hPa 0,2 l/m 0 min 0 min 0 W/m 12,9 km/h (3 Bft) 97,83 %
13.11.2021 03:26 5,6 C 5,0 C 3,3 C 95 % 1010,7 hPa 0,0 l/m 0 min 0 min 0 W/m 9,7 km/h (2 Bft) 95,74 %
13.11.2021 03:28 5,6 C 5,0 C 3,3 C 95 % 1010,7 hPa 0,0 l/m 0 min 0 min 0 W/m 12,9 km/h (3 Bft) 97,87 %
13.11.2021 03:30 5,7 C 5,0 C 3,3 C 95 % 1010,7 hPa 0,0 l/m 0 min 0 min 0 W/m 12,9 km/h (3 Bft) 97,87 %
13.11.2021 03:32 5,7 C 5,0 C 3,3 C 95 % 1010,8 hPa 0,0 l/m 0 min 0 min 0 W/m 12,9 km/h (3 Bft) 97,87 %
13.11.2021 03:34 5,7 C 5,0 C 3,3 C 95 % 1010,7 hPa 0,0 l/m 0 min 0 min 0 W/m 19,3 km/h (3 Bft) 93,62 %
13.11.2021 03:36 5,7 C 5,0 C 3,3 C 95 % 1010,7 hPa 0,0 l/m 0 min 0 min 0 W/m 19,3 km/h (3 Bft) 95,92 %
13.11.2021 03:38 5,8 C 5,0 C 3,3 C 95 % 1010,7 hPa 0,0 l/m 0 min 0 min 0 W/m 12,9 km/h (3 Bft) 97,87 %
13.11.2021 03:40 5,8 C 5,0 C 3,3 C 95 % 1010,7 hPa 0,0 l/m 0 min 0 min 0 W/m 12,9 km/h (3 Bft) 97,87 %
13.11.2021 03:42 5,8 C 5,0 C 3,3 C 95 % 1010,7 hPa 0,0 l/m 0 min 0 min 0 W/m 19,3 km/h (3 Bft) 97,87 %
13.11.2021 03:44 5,8 C 5,0 C 3,3 C 95 % 1010,7 hPa 0,0 l/m 0 min 0 min 0 W/m 12,9 km/h (3 Bft) 100,00 %
13.11.2021 03:46 5,8 C 5,0 C 3,3 C 95 % 1010,8 hPa 0,0 l/m 0 min 0 min 0 W/m 9,7 km/h (2 Bft) 97,83 %
13.11.2021 03:48 5,8 C 5,0 C 3,3 C 95 % 1010,7 hPa 0,0 l/m 0 min 0 min 0 W/m 6,4 km/h (2 Bft) 100,00 %
13.11.2021 03:50 5,8 C 5,0 C 3,3 C 95 % 1010,7 hPa 0,0 l/m 0 min 2 min 0 W/m 12,9 km/h (3 Bft) 100,00 %
13.11.2021 03:52 5,8 C 5,0 C 3,3 C 95 % 1010,7 hPa 0,0 l/m 0 min 2 min 0 W/m 16,1 km/h (3 Bft) 100,00 %
13.11.2021 03:54 5,8 C 5,0 C 3,3 C 95 % 1010,7 hPa 0,0 l/m 0 min 0 min 0 W/m 12,9 km/h (3 Bft) 100,00 %
13.11.2021 03:56 5,8 C 5,0 C 3,3 C 95 % 1010,7 hPa 0,0 l/m 0 min 0 min 0 W/m 12,9 km/h (3 Bft) 100,00 %
13.11.2021 03:58 5,8 C 5,0 C 3,3 C 95 % 1010,7 hPa 0,2 l/m 0 min 0 min 0 W/m 12,9 km/h (3 Bft) 100,00 %
13.11.2021 04:00 5,8 C 5,0 C 3,3 C 96 % 1010,7 hPa 0,0 l/m 0 min 0 min 0 W/m 16,1 km/h (3 Bft) 100,00 %
13.11.2021 04:02 5,8 C 5,0 C 3,3 C 96 % 1010,7 hPa 0,0 l/m 0 min 0 min 0 W/m 12,9 km/h (3 Bft) 100,00 %
13.11.2021 04:04 5,8 C 5,0 C 3,3 C 96 % 1010,7 hPa 0,0 l/m 0 min 0 min 0 W/m 12,9 km/h (3 Bft) 100,00 %
13.11.2021 04:06 5,9 C 5,0 C 3,3 C 96 % 1010,7 hPa 0,0 l/m 0 min 0 min 0 W/m 12,9 km/h (3 Bft) 100,00 %
13.11.2021 04:08 5,9 C 5,0 C 3,3 C 96 % 1010,7 hPa 0,0 l/m 0 min 0 min 0 W/m 16,1 km/h (3 Bft) 97,87 %
13.11.2021 04:10 5,9 C 5,0 C 3,3 C 96 % 1010,6 hPa 0,0 l/m 0 min 0 min 0 W/m 16,1 km/h (3 Bft) 100,00 %
13.11.2021 04:12 5,9 C 5,0 C 3,3 C 96 % 1010,7 hPa 0,0 l/m 0 min 0 min 0 W/m 12,9 km/h (3 Bft) 97,87 %
13.11.2021 04:14 5,9 C 5,6 C 3,3 C 96 % 1010,7 hPa 0,0 l/m 0 min 0 min 0 W/m 12,9 km/h (3 Bft) 100,00 %
13.11.2021 04:16 5,9 C 5,6 C 3,3 C 96 % 1010,6 hPa 0,0 l/m 0 min 0 min 0 W/m 12,9 km/h (3 Bft) 97,87 %
13.11.2021 04:18 6,0 C 5,6 C 3,9 C 96 % 1010,6 hPa 0,0 l/m 0 min 0 min 0 W/m 12,9 km/h (3 Bft) 97,83 %
13.11.2021 04:20 6,0 C 5,6 C 3,9 C 96 % 1010,6 hPa 0,0 l/m 0 min 0 min 0 W/m 6,4 km/h (2 Bft) 100,00 %
13.11.2021 04:22 6,0 C 5,6 C 3,9 C 96 % 1010,6 hPa 0,0 l/m 0 min 0 min 0 W/m 12,9 km/h (3 Bft) 97,87 %
13.11.2021 04:24 6,0 C 5,6 C 3,9 C 96 % 1010,6 hPa 0,0 l/m 0 min 0 min 0 W/m 12,9 km/h (3 Bft) 97,87 %
13.11.2021 04:26 6,0 C 5,6 C 3,9 C 96 % 1010,6 hPa 0,0 l/m 0 min 0 min 0 W/m 12,9 km/h (3 Bft) 97,87 %
13.11.2021 04:28 6,0 C 5,6 C 3,9 C 96 % 1010,6 hPa 0,0 l/m 0 min 0 min 0 W/m 12,9 km/h (3 Bft) 97,87 %
13.11.2021 04:30 6,0 C 5,6 C 3,9 C 96 % 1010,6 hPa 0,0 l/m 0 min 0 min 0 W/m 19,3 km/h (3 Bft) 95,65 %
13.11.2021 04:32 6,1 C 5,6 C 3,9 C 96 % 1010,6 hPa 0,0 l/m 0 min 0 min 0 W/m 16,1 km/h (3 Bft) 97,87 %
13.11.2021 04:34 6,1 C 5,6 C 3,9 C 96 % 1010,6 hPa 0,0 l/m 0 min 0 min 0 W/m 12,9 km/h (3 Bft) 97,87 %
13.11.2021 04:36 6,1 C 5,6 C 3,9 C 96 % 1010,6 hPa 0,2 l/m 0 min 0 min 0 W/m 16,1 km/h (3 Bft) 93,62 %
13.11.2021 04:38 6,1 C 5,6 C 3,9 C 96 % 1010,6 hPa 0,0 l/m 0 min 0 min 0 W/m 12,9 km/h (3 Bft) 97,87 %
13.11.2021 04:40 6,1 C 5,6 C 3,9 C 96 % 1010,5 hPa 0,0 l/m 0 min 0 min 0 W/m 12,9 km/h (3 Bft) 97,87 %
13.11.2021 04:42 6,1 C 5,6 C 3,9 C 96 % 1010,6 hPa 0,0 l/m 0 min 0 min 0 W/m 12,9 km/h (3 Bft) 97,83 %
13.11.2021 04:44 6,1 C 5,6 C 3,9 C 96 % 1010,5 hPa 0,0 l/m 0 min 0 min 0 W/m 6,4 km/h (2 Bft) 97,87 %
13.11.2021 04:46 6,2 C 5,6 C 3,9 C 96 % 1010,6 hPa 0,0 l/m 0 min 0 min 0 W/m 16,1 km/h (3 Bft) 97,87 %
13.11.2021 04:48 6,2 C 5,6 C 3,9 C 96 % 1010,6 hPa 0,0 l/m 0 min 2 min 0 W/m 12,9 km/h (3 Bft) 97,87 %
13.11.2021 04:50 6,2 C 5,6 C 3,9 C 96 % 1010,6 hPa 0,0 l/m 0 min 2 min 0 W/m 16,1 km/h (3 Bft) 97,87 %
13.11.2021 04:52 6,3 C 5,6 C 3,9 C 96 % 1010,5 hPa 0,0 l/m 0 min 0 min 0 W/m 19,3 km/h (3 Bft) 95,74 %
13.11.2021 04:54 6,3 C 5,6 C 3,9 C 96 % 1010,5 hPa 0,0 l/m 0 min 0 min 0 W/m 12,9 km/h (3 Bft) 100,00 %
13.11.2021 04:56 6,3 C 5,6 C 3,9 C 96 % 1010,5 hPa 0,0 l/m 0 min 0 min 0 W/m 9,7 km/h (2 Bft) 54,55 %
13.11.2021 04:58 6,3 C 5,6 C 3,9 C 96 % 1010,5 hPa 0,2 l/m 0 min 0 min 0 W/m 6,4 km/h (2 Bft) 100,00 %
13.11.2021 05:00 6,3 C 5,6 C 3,9 C 96 % 1010,5 hPa 0,0 l/m 0 min 0 min 0 W/m 12,9 km/h (3 Bft) 100,00 %
13.11.2021 05:02 6,3 C 5,6 C 3,9 C 96 % 1010,5 hPa 0,0 l/m 0 min 0 min 0 W/m 16,1 km/h (3 Bft) 100,00 %
13.11.2021 05:04 6,3 C 5,6 C 3,9 C 96 % 1010,4 hPa 0,0 l/m 0 min 0 min 0 W/m 16,1 km/h (3 Bft) 100,00 %
13.11.2021 05:06 6,3 C 5,6 C 3,9 C 96 % 1010,4 hPa 0,0 l/m 0 min 0 min 0 W/m 6,4 km/h (2 Bft) 97,87 %
13.11.2021 05:08 6,3 C 5,6 C 3,9 C 96 % 1010,4 hPa 0,0 l/m 0 min 0 min 0 W/m 22,5 km/h (4 Bft) 97,87 %
13.11.2021 05:10 6,3 C 5,6 C 3,9 C 97 % 1010,4 hPa 0,0 l/m 0 min 0 min 0 W/m 16,1 km/h (3 Bft) 97,14 %
13.11.2021 05:12 6,3 C 5,6 C 3,9 C 97 % 1010,4 hPa 0,0 l/m 0 min 0 min 0 W/m 16,1 km/h (3 Bft) 96,61 %
13.11.2021 05:14 6,3 C 5,6 C 3,9 C 97 % 1010,4 hPa 0,2 l/m 0 min 0 min 0 W/m 12,9 km/h (3 Bft) 97,87 %
13.11.2021 05:16 6,3 C 5,6 C 3,9 C 97 % 1010,5 hPa 0,0 l/m 0 min 0 min 0 W/m 16,1 km/h (3 Bft) 93,48 %
13.11.2021 05:18 6,3 C 5,6 C 3,9 C 97 % 1010,5 hPa 0,0 l/m 0 min 0 min 0 W/m 9,7 km/h (2 Bft) 95,74 %
13.11.2021 05:20 6,3 C 5,6 C 4,4 C 97 % 1010,5 hPa 0,0 l/m 0 min 0 min 0 W/m 12,9 km/h (3 Bft) 95,74 %
13.11.2021 05:22 6,3 C 5,6 C 4,4 C 97 % 1010,4 hPa 0,0 l/m 0 min 0 min 0 W/m 12,9 km/h (3 Bft) 97,87 %
13.11.2021 05:24 6,4 C 5,6 C 4,4 C 97 % 1010,4 hPa 0,0 l/m 0 min 0 min 0 W/m 12,9 km/h (3 Bft) 97,87 %
13.11.2021 05:26 6,4 C 5,6 C 4,4 C 97 % 1010,5 hPa 0,0 l/m 0 min 0 min 0 W/m 6,4 km/h (2 Bft) 95,74 %
13.11.2021 05:28 6,4 C 5,6 C 4,4 C 97 % 1010,4 hPa 0,0 l/m 0 min 0 min 0 W/m 6,4 km/h (2 Bft) 97,14 %
13.11.2021 05:30 6,4 C 5,6 C 4,4 C 97 % 1010,5 hPa 0,0 l/m 0 min 0 min 0 W/m 12,9 km/h (3 Bft) 96,55 %
13.11.2021 05:32 6,4 C 5,6 C 4,4 C 97 % 1010,5 hPa 0,0 l/m 0 min 0 min 0 W/m 12,9 km/h (3 Bft) 94,29 %
13.11.2021 05:34 6,4 C 5,6 C 4,4 C 97 % 1010,5 hPa 0,0 l/m 0 min 0 min 0 W/m 12,9 km/h (3 Bft) 96,61 %
13.11.2021 05:36 6,4 C 5,6 C 4,4 C 97 % 1010,5 hPa 0,0 l/m 0 min 0 min 0 W/m 16,1 km/h (3 Bft) 95,74 %
13.11.2021 05:38 6,4 C 5,6 C 4,4 C 97 % 1010,5 hPa 0,0 l/m 0 min 0 min 0 W/m 22,5 km/h (4 Bft) 94,29 %
13.11.2021 05:40 6,4 C 5,6 C 4,4 C 97 % 1010,5 hPa 0,0 l/m 0 min 0 min 0 W/m 12,9 km/h (3 Bft) 95,74 %
13.11.2021 05:42 6,4 C 5,6 C 4,4 C 97 % 1010,5 hPa 0,0 l/m 0 min 2 min 0 W/m 9,7 km/h (2 Bft) 94,83 %
13.11.2021 05:44 6,5 C 5,6 C 4,4 C 97 % 1010,5 hPa 0,0 l/m 0 min 0 min 0 W/m 6,4 km/h (2 Bft) 94,29 %
13.11.2021 05:46 6,5 C 6,1 C 4,4 C 97 % 1010,5 hPa 0,0 l/m 0 min 0 min 0 W/m 16,1 km/h (3 Bft) 93,62 %
13.11.2021 05:48 6,5 C 6,1 C 4,4 C 97 % 1010,6 hPa 0,0 l/m 0 min 0 min 0 W/m 12,9 km/h (3 Bft) 93,62 %
13.11.2021 05:50 6,5 C 6,1 C 4,4 C 97 % 1010,5 hPa 0,0 l/m 0 min 0 min 0 W/m 12,9 km/h (3 Bft) 93,22 %
13.11.2021 05:52 6,5 C 6,1 C 4,4 C 97 % 1010,5 hPa 0,0 l/m 0 min 0 min 0 W/m 6,4 km/h (2 Bft) 95,65 %
13.11.2021 05:54 6,5 C 6,1 C 4,4 C 97 % 1010,5 hPa 0,0 l/m 0 min 0 min 0 W/m 9,7 km/h (2 Bft) 95,74 %
13.11.2021 05:56 6,5 C 6,1 C 4,4 C 97 % 1010,5 hPa 0,0 l/m 0 min 0 min 0 W/m 16,1 km/h (3 Bft) 94,29 %
13.11.2021 05:58 6,5 C 6,1 C 4,4 C 97 % 1010,5 hPa 0,0 l/m 0 min 0 min 0 W/m 12,9 km/h (3 Bft) 95,74 %
13.11.2021 06:00 6,5 C 6,1 C 4,4 C 97 % 1010,6 hPa 0,0 l/m 0 min 0 min 0 W/m 16,1 km/h (3 Bft) 95,74 %
13.11.2021 06:02 6,5 C 6,1 C 4,4 C 97 % 1010,5 hPa 0,0 l/m 0 min 0 min 0 W/m 6,4 km/h (2 Bft) 97,87 %
13.11.2021 06:04 6,5 C 6,1 C 4,4 C 97 % 1010,6 hPa 0,0 l/m 0 min 0 min 0 W/m 12,9 km/h (3 Bft) 97,87 %
13.11.2021 06:06 6,6 C 6,1 C 4,4 C 97 % 1010,6 hPa 0,0 l/m 0 min 0 min 0 W/m 12,9 km/h (3 Bft) 93,10 %
13.11.2021 06:08 6,6 C 6,1 C 4,4 C 97 % 1010,6 hPa 0,0 l/m 0 min 2 min 0 W/m 12,9 km/h (3 Bft) 97,14 %
13.11.2021 06:10 6,6 C 6,1 C 4,4 C 97 % 1010,7 hPa 0,0 l/m 0 min 2 min 0 W/m 12,9 km/h (3 Bft) 98,31 %
13.11.2021 06:12 6,5 C 6,1 C 4,4 C 97 % 1010,7 hPa 0,0 l/m 0 min 2 min 0 W/m 12,9 km/h (3 Bft) 97,14 %
13.11.2021 06:14 6,6 C 6,1 C 4,4 C 97 % 1010,7 hPa 0,2 l/m 0 min 2 min 0 W/m 12,9 km/h (3 Bft) 100,00 %
13.11.2021 06:16 6,6 C 6,1 C 4,4 C 97 % 1010,7 hPa 0,0 l/m 0 min 0 min 0 W/m 12,9 km/h (3 Bft) 95,74 %
13.11.2021 06:18 6,5 C 6,1 C 4,4 C 97 % 1010,7 hPa 0,0 l/m 0 min 2 min 0 W/m 16,1 km/h (3 Bft) 97,87 %
13.11.2021 06:20 6,6 C 6,1 C 4,4 C 97 % 1010,7 hPa 0,0 l/m 0 min 2 min 0 W/m 19,3 km/h (3 Bft) 97,83 %
13.11.2021 06:22 6,6 C 6,1 C 4,4 C 97 % 1010,6 hPa 0,0 l/m 0 min 2 min 0 W/m 6,4 km/h (2 Bft) 97,87 %
13.11.2021 06:24 6,6 C 6,1 C 4,4 C 97 % 1010,7 hPa 0,2 l/m 0 min 2 min 0 W/m 12,9 km/h (3 Bft) 93,62 %
13.11.2021 06:26 6,6 C 6,1 C 4,4 C 97 % 1010,6 hPa 0,0 l/m 0 min 0 min 0 W/m 6,4 km/h (2 Bft) 97,87 %
13.11.2021 06:28 6,6 C 6,1 C 4,4 C 97 % 1010,7 hPa 0,2 l/m 0 min 0 min 0 W/m 6,4 km/h (2 Bft) 95,74 %
13.11.2021 06:30 6,6 C 6,1 C 4,4 C 97 % 1010,7 hPa 0,0 l/m 0 min 0 min 0 W/m 12,9 km/h (3 Bft) 97,87 %
13.11.2021 06:32 6,6 C 6,1 C 4,4 C 97 % 1010,6 hPa 0,0 l/m 0 min 0 min 0 W/m 12,9 km/h (3 Bft) 97,83 %
13.11.2021 06:34 6,6 C 6,1 C 4,4 C 97 % 1010,6 hPa 0,0 l/m 0 min 0 min 0 W/m 12,9 km/h (3 Bft) 95,74 %
13.11.2021 06:36 6,6 C 6,1 C 4,4 C 97 % 1010,6 hPa 0,0 l/m 0 min 0 min 0 W/m 12,9 km/h (3 Bft) 97,87 %
13.11.2021 06:38 6,6 C 6,1 C 4,4 C 97 % 1010,6 hPa 0,0 l/m 0 min 0 min 0 W/m 12,9 km/h (3 Bft) 98,31 %
13.11.2021 06:40 6,6 C 6,1 C 4,4 C 97 % 1010,6 hPa 0,0 l/m 0 min 0 min 0 W/m 6,4 km/h (2 Bft) 97,14 %
13.11.2021 06:42 6,6 C 6,1 C 4,4 C 97 % 1010,6 hPa 0,0 l/m 0 min 0 min 0 W/m 6,4 km/h (2 Bft) 97,87 %
13.11.2021 06:44 6,6 C 6,1 C 4,4 C 97 % 1010,6 hPa 0,0 l/m 0 min 0 min 0 W/m 6,4 km/h (2 Bft) 100,00 %
13.11.2021 06:46 6,7 C 6,1 C 4,4 C 97 % 1010,6 hPa 0,0 l/m 0 min 0 min 0 W/m 6,4 km/h (2 Bft) 98,31 %
13.11.2021 06:48 6,7 C 6,1 C 5,0 C 97 % 1010,7 hPa 0,0 l/m 0 min 0 min 0 W/m 6,4 km/h (2 Bft) 97,14 %
13.11.2021 06:50 6,7 C 6,1 C 5,0 C 97 % 1010,6 hPa 0,0 l/m 0 min 0 min 0 W/m 6,4 km/h (2 Bft) 97,87 %
13.11.2021 06:52 6,7 C 6,1 C 5,0 C 97 % 1010,6 hPa 0,0 l/m 0 min 0 min 0 W/m 16,1 km/h (3 Bft) 97,87 %
13.11.2021 06:54 6,7 C 6,1 C 5,0 C 97 % 1010,6 hPa 0,0 l/m 0 min 0 min 0 W/m 12,9 km/h (3 Bft) 100,00 %
13.11.2021 06:56 6,7 C 6,1 C 5,0 C 97 % 1010,7 hPa 0,0 l/m 0 min 0 min 0 W/m 12,9 km/h (3 Bft) 100,00 %
13.11.2021 06:58 6,7 C 6,1 C 5,0 C 97 % 1010,6 hPa 0,0 l/m 0 min 0 min 0 W/m 6,4 km/h (2 Bft) 100,00 %
13.11.2021 07:00 6,7 C 6,1 C 5,0 C 97 % 1010,7 hPa 0,0 l/m 0 min 0 min 0 W/m 12,9 km/h (3 Bft) 100,00 %
13.11.2021 07:02 6,7 C 6,1 C 5,0 C 97 % 1010,6 hPa 0,0 l/m 0 min 0 min 0 W/m 6,4 km/h (2 Bft) 100,00 %
13.11.2021 07:04 6,7 C 6,1 C 5,0 C 97 % 1010,6 hPa 0,0 l/m 0 min 0 min 0 W/m 16,1 km/h (3 Bft) 100,00 %
13.11.2021 07:06 6,7 C 6,1 C 5,0 C 97 % 1010,6 hPa 0,0 l/m 0 min 0 min 0 W/m 6,4 km/h (2 Bft) 100,00 %
13.11.2021 07:08 6,7 C 6,1 C 5,0 C 97 % 1010,6 hPa 0,0 l/m 0 min 0 min 0 W/m 12,9 km/h (3 Bft) 100,00 %
13.11.2021 07:10 6,7 C 6,1 C 5,0 C 97 % 1010,7 hPa 0,0 l/m 0 min 0 min 0 W/m 12,9 km/h (3 Bft) 100,00 %
13.11.2021 07:12 6,7 C 6,1 C 5,0 C 97 % 1010,7 hPa 0,0 l/m 0 min 0 min 0 W/m 6,4 km/h (2 Bft) 97,87 %
13.11.2021 07:14 6,7 C 6,1 C 5,0 C 97 % 1010,7 hPa 0,0 l/m 0 min 0 min 0 W/m 12,9 km/h (3 Bft) 100,00 %
13.11.2021 07:16 6,7 C 6,1 C 5,0 C 97 % 1010,7 hPa 0,0 l/m 0 min 0 min 0 W/m 6,4 km/h (2 Bft) 100,00 %
13.11.2021 07:18 6,7 C 6,1 C 5,0 C 97 % 1010,7 hPa 0,0 l/m 0 min 0 min 0 W/m 12,9 km/h (3 Bft) 100,00 %
13.11.2021 07:20 6,7 C 6,1 C 5,0 C 97 % 1010,7 hPa 0,0 l/m 0 min 0 min 0 W/m 16,1 km/h (3 Bft) 100,00 %
13.11.2021 07:22 6,7 C 6,1 C 5,0 C 97 % 1010,7 hPa 0,0 l/m 0 min 0 min 0 W/m 6,4 km/h (2 Bft) 100,00 %
13.11.2021 07:24 6,7 C 6,1 C 5,0 C 97 % 1010,7 hPa 0,0 l/m 0 min 0 min 0 W/m 12,9 km/h (3 Bft) 100,00 %
13.11.2021 07:26 6,7 C 6,1 C 5,0 C 97 % 1010,8 hPa 0,0 l/m 0 min 0 min 0 W/m 6,4 km/h (2 Bft) 97,87 %
13.11.2021 07:28 6,7 C 6,1 C 5,0 C 97 % 1010,8 hPa 0,0 l/m 0 min 0 min 0 W/m 9,7 km/h (2 Bft) 100,00 %
13.11.2021 07:30 6,7 C 6,1 C 5,0 C 97 % 1010,8 hPa 0,0 l/m 0 min 0 min 0 W/m 12,9 km/h (3 Bft) 100,00 %
13.11.2021 07:32 6,7 C 6,1 C 5,0 C 97 % 1010,9 hPa 0,0 l/m 0 min 0 min 0 W/m 12,9 km/h (3 Bft) 100,00 %
13.11.2021 07:34 6,8 C 6,1 C 5,0 C 97 % 1010,9 hPa 0,0 l/m 0 min 0 min 0 W/m 6,4 km/h (2 Bft) 100,00 %
13.11.2021 07:36 6,8 C 6,1 C 5,0 C 97 % 1010,9 hPa 0,0 l/m 0 min 0 min 0 W/m 12,9 km/h (3 Bft) 98,31 %
13.11.2021 07:38 6,8 C 6,1 C 5,0 C 97 % 1010,9 hPa 0,0 l/m 0 min 0 min 0 W/m 16,1 km/h (3 Bft) 100,00 %
13.11.2021 07:40 6,8 C 6,1 C 5,0 C 97 % 1010,8 hPa 0,0 l/m 0 min 0 min 0 W/m 16,1 km/h (3 Bft) 97,87 %
13.11.2021 07:42 6,8 C 6,1 C 5,0 C 97 % 1010,9 hPa 0,0 l/m 0 min 0 min 0 W/m 12,9 km/h (3 Bft) 97,14 %
13.11.2021 07:44 6,8 C 6,1 C 5,0 C 97 % 1010,9 hPa 0,0 l/m 0 min 0 min 0 W/m 12,9 km/h (3 Bft) 98,31 %
13.11.2021 07:46 6,8 C 6,1 C 5,0 C 97 % 1010,9 hPa 0,0 l/m 0 min 0 min 0 W/m 12,9 km/h (3 Bft) 100,00 %
13.11.2021 07:48 6,9 C 6,1 C 5,0 C 97 % 1011,0 hPa 0,0 l/m 0 min 0 min 0 W/m 16,1 km/h (3 Bft) 100,00 %
13.11.2021 07:50 6,9 C 6,1 C 5,0 C 97 % 1010,9 hPa 0,0 l/m 0 min 0 min 0 W/m 6,4 km/h (2 Bft) 100,00 %
13.11.2021 07:52 6,9 C 6,1 C 5,0 C 97 % 1010,9 hPa 0,0 l/m 0 min 0 min 0 W/m 12,9 km/h (3 Bft) 100,00 %
13.11.2021 07:54 6,9 C 6,1 C 5,0 C 97 % 1011,0 hPa 0,0 l/m 0 min 0 min 0 W/m 6,4 km/h (2 Bft) 97,83 %
13.11.2021 07:56 6,9 C 6,1 C 5,0 C 97 % 1011,0 hPa 0,0 l/m 0 min 0 min 0 W/m 6,4 km/h (2 Bft) 100,00 %
13.11.2021 07:58 6,9 C 6,1 C 5,0 C 97 % 1011,0 hPa 0,0 l/m 0 min 0 min 0 W/m 3,2 km/h (1 Bft) 97,87 %
13.11.2021 08:00 7,0 C 6,1 C 5,0 C 97 % 1011,0 hPa 0,0 l/m 0 min 0 min 0 W/m 6,4 km/h (2 Bft) 100,00 %
13.11.2021 08:02 7,0 C 6,1 C 5,0 C 98 % 1011,1 hPa 0,0 l/m 0 min 0 min 0 W/m 6,4 km/h (2 Bft) 93,62 %
13.11.2021 08:04 7,0 C 6,7 C 5,0 C 98 % 1011,1 hPa 0,0 l/m 0 min 0 min 0 W/m 9,7 km/h (2 Bft) 94,83 %
13.11.2021 08:06 7,0 C 6,7 C 5,0 C 98 % 1011,1 hPa 0,0 l/m 0 min 0 min 0 W/m 6,4 km/h (2 Bft) 97,14 %
13.11.2021 08:08 7,0 C 6,7 C 5,0 C 98 % 1011,2 hPa 0,0 l/m 0 min 2 min 0 W/m 6,4 km/h (2 Bft) 93,22 %
13.11.2021 08:10 7,0 C 6,7 C 5,0 C 98 % 1011,1 hPa 0,0 l/m 0 min 2 min 0 W/m 12,9 km/h (3 Bft) 94,29 %
13.11.2021 08:12 7,0 C 6,7 C 5,0 C 98 % 1011,2 hPa 0,0 l/m 0 min 0 min 3 W/m 6,4 km/h (2 Bft) 95,74 %
13.11.2021 08:14 7,0 C 6,7 C 5,0 C 98 % 1011,2 hPa 0,0 l/m 0 min 0 min 5 W/m 6,4 km/h (2 Bft) 95,74 %
13.11.2021 08:16 7,0 C 6,7 C 5,0 C 98 % 1011,3 hPa 0,0 l/m 0 min 2 min 5 W/m 12,9 km/h (3 Bft) 93,62 %
13.11.2021 08:18 7,0 C 6,7 C 5,6 C 98 % 1011,2 hPa 0,2 l/m 0 min 2 min 7 W/m 19,3 km/h (3 Bft) 89,66 %
13.11.2021 08:20 7,0 C 6,7 C 5,6 C 98 % 1011,2 hPa 0,2 l/m 0 min 2 min 9 W/m 16,1 km/h (3 Bft) 94,29 %
13.11.2021 08:22 7,1 C 6,7 C 5,6 C 98 % 1011,2 hPa 0,0 l/m 0 min 2 min 7 W/m 3,2 km/h (1 Bft) 93,62 %
13.11.2021 08:24 7,1 C 6,7 C 5,6 C 98 % 1011,2 hPa 0,4 l/m 0 min 2 min 11 W/m 12,9 km/h (3 Bft) 93,62 %
13.11.2021 08:26 7,1 C 6,7 C 5,6 C 98 % 1011,2 hPa 0,2 l/m 0 min 2 min 13 W/m 12,9 km/h (3 Bft) 93,62 %
13.11.2021 08:28 7,1 C 6,7 C 5,6 C 98 % 1011,2 hPa 0,0 l/m 0 min 2 min 12 W/m 12,9 km/h (3 Bft) 93,62 %
13.11.2021 08:30 7,1 C 6,7 C 5,6 C 98 % 1011,3 hPa 0,0 l/m 0 min 0 min 10 W/m 6,4 km/h (2 Bft) 93,48 %
13.11.2021 08:32 7,1 C 6,7 C 5,6 C 98 % 1011,3 hPa 0,0 l/m 0 min 0 min 7 W/m 12,9 km/h (3 Bft) 91,49 %
13.11.2021 08:34 7,1 C 6,7 C 5,6 C 98 % 1011,3 hPa 0,2 l/m 0 min 0 min 7 W/m 6,4 km/h (2 Bft) 93,62 %
13.11.2021 08:36 7,1 C 6,7 C 5,6 C 98 % 1011,4 hPa 0,0 l/m 0 min 0 min 8 W/m 16,1 km/h (3 Bft) 91,53 %
13.11.2021 08:38 7,1 C 6,7 C 5,6 C 98 % 1011,4 hPa 0,0 l/m 0 min 0 min 9 W/m 12,9 km/h (3 Bft) 93,48 %
13.11.2021 08:40 7,1 C 6,7 C 5,6 C 98 % 1011,3 hPa 0,0 l/m 0 min 0 min 10 W/m 12,9 km/h (3 Bft) 91,67 %
13.11.2021 08:42 7,1 C 6,7 C 5,6 C 98 % 1011,4 hPa 0,0 l/m 0 min 0 min 10 W/m 6,4 km/h (2 Bft) 93,48 %
13.11.2021 08:44 7,1 C 6,7 C 5,6 C 98 % 1011,5 hPa 0,0 l/m 0 min 0 min 9 W/m 12,9 km/h (3 Bft) 95,74 %
13.11.2021 08:46 7,1 C 6,7 C 5,6 C 98 % 1011,4 hPa 0,0 l/m 0 min 2 min 11 W/m 6,4 km/h (2 Bft) 95,74 %
13.11.2021 08:48 7,2 C 6,7 C 5,6 C 98 % 1011,4 hPa 0,0 l/m 0 min 2 min 12 W/m 12,9 km/h (3 Bft) 96,61 %
13.11.2021 08:50 7,2 C 6,7 C 5,6 C 98 % 1011,5 hPa 0,0 l/m 0 min 2 min 12 W/m 9,7 km/h (2 Bft) 97,83 %
13.11.2021 08:52 7,2 C 6,7 C 5,6 C 98 % 1011,5 hPa 0,0 l/m 0 min 0 min 15 W/m 3,2 km/h (1 Bft) 97,87 %
13.11.2021 08:54 7,2 C 6,7 C 5,6 C 98 % 1011,5 hPa 0,0 l/m 0 min 0 min 15 W/m 6,4 km/h (2 Bft) 100,00 %
13.11.2021 08:56 7,3 C 6,7 C 5,6 C 98 % 1011,5 hPa 0,0 l/m 0 min 0 min 16 W/m 12,9 km/h (3 Bft) 97,87 %
13.11.2021 08:58 7,3 C 6,7 C 5,6 C 98 % 1011,5 hPa 0,0 l/m 0 min 0 min 17 W/m 6,4 km/h (2 Bft) 100,00 %
13.11.2021 09:00 7,3 C 6,7 C 5,6 C 98 % 1011,5 hPa 0,0 l/m 0 min 0 min 18 W/m 3,2 km/h (1 Bft) 97,87 %
13.11.2021 09:02 7,3 C 6,7 C 5,6 C 98 % 1011,5 hPa 0,0 l/m 0 min 2 min 22 W/m 3,2 km/h (1 Bft) 100,00 %
13.11.2021 09:04 7,3 C 6,7 C 5,6 C 98 % 1011,5 hPa 0,0 l/m 0 min 2 min 26 W/m 6,4 km/h (2 Bft) 100,00 %
13.11.2021 09:06 7,4 C 6,7 C 5,6 C 98 % 1011,5 hPa 0,0 l/m 0 min 0 min 30 W/m 16,1 km/h (3 Bft) 97,87 %
13.11.2021 09:08 7,4 C 6,7 C 5,6 C 98 % 1011,5 hPa 0,0 l/m 0 min 0 min 33 W/m 12,9 km/h (3 Bft) 100,00 %
13.11.2021 09:10 7,4 C 6,7 C 5,6 C 98 % 1011,6 hPa 0,0 l/m 0 min 0 min 33 W/m 12,9 km/h (3 Bft) 100,00 %
13.11.2021 09:12 7,5 C 7,2 C 5,6 C 98 % 1011,6 hPa 0,0 l/m 0 min 0 min 34 W/m 6,4 km/h (2 Bft) 100,00 %
13.11.2021 09:14 7,5 C 7,2 C 5,6 C 98 % 1011,5 hPa 0,0 l/m 0 min 2 min 35 W/m 6,4 km/h (2 Bft) 100,00 %
13.11.2021 09:16 7,5 C 7,2 C 6,1 C 98 % 1011,6 hPa 0,0 l/m 0 min 2 min 40 W/m 6,4 km/h (2 Bft) 97,87 %
13.11.2021 09:18 7,5 C 7,2 C 6,1 C 98 % 1011,5 hPa 0,0 l/m 0 min 2 min 50 W/m 6,4 km/h (2 Bft) 100,00 %
13.11.2021 09:20 7,6 C 7,2 C 6,1 C 98 % 1011,6 hPa 0,0 l/m 0 min 0 min 61 W/m 6,4 km/h (2 Bft) 100,00 %
13.11.2021 09:22 7,6 C 7,2 C 6,1 C 98 % 1011,5 hPa 0,0 l/m 0 min 0 min 72 W/m 12,9 km/h (3 Bft) 100,00 %
13.11.2021 09:24 7,7 C 7,2 C 6,1 C 98 % 1011,5 hPa 0,0 l/m 0 min 0 min 81 W/m 6,4 km/h (2 Bft) 100,00 %
13.11.2021 09:26 7,8 C 7,2 C 6,1 C 98 % 1011,5 hPa 0,0 l/m 0 min 0 min 82 W/m 6,4 km/h (2 Bft) 100,00 %
13.11.2021 09:28 7,8 C 7,8 C 6,1 C 98 % 1011,5 hPa 0,0 l/m 0 min 0 min 83 W/m 12,9 km/h (3 Bft) 100,00 %
13.11.2021 09:30 7,9 C 7,8 C 6,1 C 98 % 1011,6 hPa 0,0 l/m 0 min 0 min 92 W/m 6,4 km/h (2 Bft) 100,00 %
13.11.2021 09:32 7,9 C 7,8 C 6,7 C 98 % 1011,5 hPa 0,0 l/m 2 min 2 min 114 W/m 3,2 km/h (1 Bft) 100,00 %
13.11.2021 09:34 8,0 C 7,8 C 6,7 C 98 % 1011,6 hPa 0,0 l/m 2 min 2 min 122 W/m 12,9 km/h (3 Bft) 100,00 %
13.11.2021 09:36 8,0 C 7,8 C 6,7 C 98 % 1011,6 hPa 0,0 l/m 2 min 2 min 135 W/m 6,4 km/h (2 Bft) 100,00 %
13.11.2021 09:38 8,1 C 7,8 C 6,7 C 98 % 1011,6 hPa 0,2 l/m 2 min 2 min 121 W/m 12,9 km/h (3 Bft) 100,00 %
13.11.2021 09:40 8,1 C 8,3 C 6,7 C 98 % 1011,6 hPa 0,0 l/m 2 min 2 min 110 W/m 6,4 km/h (2 Bft) 100,00 %
13.11.2021 09:42 8,2 C 8,3 C 6,7 C 98 % 1011,6 hPa 0,2 l/m 0 min 2 min 97 W/m 6,4 km/h (2 Bft) 97,87 %
13.11.2021 09:44 8,3 C 8,3 C 6,7 C 98 % 1011,6 hPa 0,0 l/m 0 min 2 min 89 W/m 12,9 km/h (3 Bft) 100,00 %
13.11.2021 09:46 8,3 C 8,3 C 6,7 C 98 % 1011,6 hPa 0,2 l/m 0 min 2 min 69 W/m 6,4 km/h (2 Bft) 100,00 %
13.11.2021 09:48 8,4 C 7,8 C 6,7 C 98 % 1011,7 hPa 0,0 l/m 0 min 2 min 45 W/m 6,4 km/h (2 Bft) 100,00 %
13.11.2021 09:50 8,4 C 7,8 C 6,7 C 98 % 1011,7 hPa 0,2 l/m 0 min 2 min 28 W/m 3,2 km/h (1 Bft) 100,00 %
13.11.2021 09:52 8,4 C 7,8 C 6,7 C 98 % 1011,7 hPa 0,0 l/m 0 min 2 min 18 W/m 6,4 km/h (2 Bft) 100,00 %
13.11.2021 09:54 8,4 C 7,8 C 6,7 C 98 % 1011,8 hPa 0,0 l/m 0 min 2 min 15 W/m 12,9 km/h (3 Bft) 100,00 %
13.11.2021 09:56 8,5 C 7,8 C 6,7 C 98 % 1011,8 hPa 0,0 l/m 0 min 2 min 14 W/m 6,4 km/h (2 Bft) 100,00 %
13.11.2021 09:58 8,5 C 7,8 C 6,7 C 98 % 1011,8 hPa 0,0 l/m 0 min 2 min 15 W/m 3,2 km/h (1 Bft) 100,00 %
13.11.2021 10:00 8,5 C 7,8 C 6,7 C 98 % 1011,8 hPa 0,0 l/m 0 min 0 min 18 W/m 6,4 km/h (2 Bft) 97,83 %
13.11.2021 10:02 8,5 C 7,8 C 6,7 C 98 % 1011,8 hPa 0,0 l/m 0 min 2 min 20 W/m 3,2 km/h (1 Bft) 100,00 %
13.11.2021 10:04 8,5 C 7,8 C 6,7 C 98 % 1011,8 hPa 0,0 l/m 0 min 0 min 25 W/m 6,4 km/h (2 Bft) 100,00 %
13.11.2021 10:06 8,5 C 7,8 C 6,7 C 98 % 1011,8 hPa 0,0 l/m 0 min 0 min 26 W/m 6,4 km/h (2 Bft) 100,00 %
13.11.2021 10:08 8,4 C 7,8 C 6,7 C 98 % 1011,8 hPa 0,0 l/m 0 min 0 min 31 W/m 3,2 km/h (1 Bft) 97,87 %
13.11.2021 10:10 8,4 C 7,8 C 6,7 C 98 % 1011,9 hPa 0,0 l/m 0 min 0 min 33 W/m 3,2 km/h (1 Bft) 97,14 %
13.11.2021 10:12 8,4 C 7,8 C 6,7 C 98 % 1011,9 hPa 0,0 l/m 0 min 0 min 30 W/m 3,2 km/h (1 Bft) 100,00 %
13.11.2021 10:14 8,4 C 7,8 C 6,7 C 98 % 1011,9 hPa 0,0 l/m 0 min 0 min 34 W/m 6,4 km/h (2 Bft) 97,87 %
13.11.2021 10:16 8,5 C 7,8 C 6,7 C 98 % 1011,9 hPa 0,0 l/m 0 min 0 min 36 W/m 12,9 km/h (3 Bft) 100,00 %
13.11.2021 10:18 8,5 C 7,8 C 6,7 C 98 % 1011,9 hPa 0,0 l/m 0 min 0 min 36 W/m 6,4 km/h (2 Bft) 97,87 %
13.11.2021 10:20 8,5 C 7,8 C 6,7 C 98 % 1011,8 hPa 0,0 l/m 0 min 0 min 37 W/m 12,9 km/h (3 Bft) 95,74 %
13.11.2021 10:22 8,5 C 7,8 C 6,7 C 98 % 1011,8 hPa 0,0 l/m 0 min 0 min 47 W/m 12,9 km/h (3 Bft) 97,87 %
13.11.2021 10:24 8,5 C 7,8 C 6,7 C 98 % 1011,9 hPa 0,0 l/m 0 min 0 min 60 W/m 6,4 km/h (2 Bft) 95,65 %
13.11.2021 10:26 8,5 C 8,3 C 6,7 C 98 % 1011,9 hPa 0,0 l/m 0 min 0 min 85 W/m 6,4 km/h (2 Bft) 95,74 %
13.11.2021 10:28 8,5 C 8,3 C 7,2 C 98 % 1011,9 hPa 0,0 l/m 0 min 0 min 119 W/m 6,4 km/h (2 Bft) 97,87 %
13.11.2021 10:30 8,6 C 8,3 C 7,2 C 98 % 1011,9 hPa 0,0 l/m 2 min 0 min 147 W/m 6,4 km/h (2 Bft) 95,74 %
13.11.2021 10:32 8,6 C 8,3 C 7,2 C 98 % 1011,9 hPa 0,0 l/m 2 min 0 min 164 W/m 12,9 km/h (3 Bft) 95,74 %
13.11.2021 10:34 8,7 C 8,3 C 7,2 C 98 % 1011,9 hPa 0,0 l/m 0 min 0 min 126 W/m 12,9 km/h (3 Bft) 97,87 %
13.11.2021 10:36 8,8 C 8,3 C 7,2 C 98 % 1012,0 hPa 0,0 l/m 0 min 0 min 133 W/m 12,9 km/h (3 Bft) 93,48 %
13.11.2021 10:38 8,8 C 8,3 C 7,2 C 98 % 1012,0 hPa 0,0 l/m 0 min 0 min 120 W/m 6,4 km/h (2 Bft) 93,62 %
13.11.2021 10:40 8,9 C 8,9 C 7,2 C 98 % 1012,0 hPa 0,0 l/m 0 min 0 min 118 W/m 16,1 km/h (3 Bft) 95,74 %
13.11.2021 10:42 8,9 C 8,9 C 7,2 C 98 % 1012,0 hPa 0,0 l/m 0 min 0 min 89 W/m 6,4 km/h (2 Bft) 95,74 %
13.11.2021 10:44 8,9 C 8,9 C 7,2 C 98 % 1012,0 hPa 0,0 l/m 0 min 0 min 66 W/m 16,1 km/h (3 Bft) 95,74 %
13.11.2021 10:46 9,0 C 8,9 C 7,2 C 98 % 1012,0 hPa 0,0 l/m 0 min 0 min 55 W/m 6,4 km/h (2 Bft) 93,48 %
13.11.2021 10:48 9,0 C 8,3 C 7,2 C 98 % 1012,0 hPa 0,0 l/m 0 min 0 min 51 W/m 6,4 km/h (2 Bft) 89,36 %
13.11.2021 10:50 9,0 C 8,9 C 7,2 C 98 % 1012,0 hPa 0,0 l/m 0 min 0 min 49 W/m 12,9 km/h (3 Bft) 91,49 %
13.11.2021 10:52 9,0 C 8,9 C 7,2 C 98 % 1011,9 hPa 0,0 l/m 0 min 0 min 49 W/m 12,9 km/h (3 Bft) 93,62 %
13.11.2021 10:54 9,1 C 8,9 C 7,2 C 98 % 1011,9 hPa 0,0 l/m 0 min 0 min 60 W/m 6,4 km/h (2 Bft) 95,74 %
13.11.2021 10:56 9,1 C 8,9 C 7,2 C 98 % 1011,9 hPa 0,0 l/m 0 min 0 min 50 W/m 3,2 km/h (1 Bft) 95,74 %
13.11.2021 10:58 9,1 C 8,9 C 7,2 C 98 % 1011,9 hPa 0,0 l/m 0 min 0 min 41 W/m 6,4 km/h (2 Bft) 95,65 %
13.11.2021 11:00 9,1 C 8,9 C 7,2 C 99 % 1011,9 hPa 0,0 l/m 0 min 0 min 36 W/m 6,4 km/h (2 Bft) 95,74 %
13.11.2021 11:02 9,1 C 8,9 C 7,2 C 99 % 1012,0 hPa 0,0 l/m 0 min 0 min 34 W/m 3,2 km/h (1 Bft) 94,29 %
13.11.2021 11:04 9,2 C 8,9 C 7,2 C 99 % 1011,9 hPa 0,0 l/m 0 min 0 min 35 W/m 9,7 km/h (2 Bft) 95,74 %
13.11.2021 11:06 9,2 C 8,9 C 7,2 C 99 % 1011,9 hPa 0,0 l/m 0 min 0 min 39 W/m 6,4 km/h (2 Bft) 95,74 %
13.11.2021 11:08 9,2 C 8,9 C 7,2 C 99 % 1011,9 hPa 0,0 l/m 0 min 0 min 48 W/m 3,2 km/h (1 Bft) 95,74 %
13.11.2021 11:10 9,3 C 8,9 C 7,8 C 99 % 1011,9 hPa 0,0 l/m 0 min 0 min 76 W/m 9,7 km/h (2 Bft) 95,74 %
13.11.2021 11:12 9,3 C 8,9 C 7,8 C 99 % 1011,9 hPa 0,0 l/m 0 min 0 min 105 W/m 6,4 km/h (2 Bft) 95,74 %
13.11.2021 11:14 9,3 C 8,9 C 7,8 C 99 % 1012,0 hPa 0,0 l/m 0 min 0 min 88 W/m 12,9 km/h (3 Bft) 95,65 %
13.11.2021 11:16 9,3 C 8,9 C 7,8 C 99 % 1011,9 hPa 0,0 l/m 0 min 0 min 54 W/m 6,4 km/h (2 Bft) 95,74 %
13.11.2021 11:18 9,3 C 8,9 C 7,8 C 99 % 1011,9 hPa 0,0 l/m 0 min 0 min 44 W/m 6,4 km/h (2 Bft) 95,74 %
13.11.2021 11:20 9,3 C 8,9 C 7,8 C 99 % 1011,9 hPa 0,0 l/m 0 min 0 min 38 W/m 6,4 km/h (2 Bft) 97,87 %
13.11.2021 11:22 9,3 C 8,9 C 7,8 C 99 % 1011,9 hPa 0,0 l/m 0 min 0 min 28 W/m 6,4 km/h (2 Bft) 95,74 %
13.11.2021 11:24 9,3 C 8,9 C 7,8 C 98 % 1011,9 hPa 0,0 l/m 0 min 0 min 23 W/m 3,2 km/h (1 Bft) 97,87 %
13.11.2021 11:26 9,4 C 8,9 C 7,8 C 98 % 1011,9 hPa 0,0 l/m 0 min 0 min 26 W/m 3,2 km/h (1 Bft) 95,65 %
13.11.2021 11:28 9,4 C 8,9 C 7,8 C 98 % 1011,9 hPa 0,0 l/m 0 min 0 min 28 W/m 6,4 km/h (2 Bft) 97,87 %
13.11.2021 11:30 9,4 C 8,9 C 7,8 C 98 % 1011,9 hPa 0,0 l/m 0 min 0 min 32 W/m 3,2 km/h (1 Bft) 95,74 %
13.11.2021 11:32 9,4 C 8,9 C 7,8 C 98 % 1012,0 hPa 0,0 l/m 0 min 0 min 35 W/m 3,2 km/h (1 Bft) 100,00 %
13.11.2021 11:34 9,4 C 8,9 C 7,8 C 98 % 1011,9 hPa 0,0 l/m 0 min 0 min 45 W/m 3,2 km/h (1 Bft) 100,00 %
13.11.2021 11:36 9,4 C 8,9 C 7,8 C 98 % 1011,9 hPa 0,0 l/m 0 min 0 min 51 W/m 6,4 km/h (2 Bft) 97,87 %
13.11.2021 11:38 9,4 C 8,9 C 7,8 C 98 % 1011,9 hPa 0,0 l/m 0 min 0 min 55 W/m 3,2 km/h (1 Bft) 97,83 %
13.11.2021 11:40 9,5 C 9,4 C 7,8 C 98 % 1011,9 hPa 0,0 l/m 0 min 0 min 52 W/m 9,7 km/h (2 Bft) 100,00 %
13.11.2021 11:42 9,5 C 9,4 C 7,8 C 99 % 1011,9 hPa 0,0 l/m 0 min 0 min 54 W/m 6,4 km/h (2 Bft) 97,87 %
13.11.2021 11:44 9,5 C 9,4 C 7,8 C 99 % 1011,9 hPa 0,0 l/m 0 min 0 min 53 W/m 6,4 km/h (2 Bft) 97,87 %
13.11.2021 11:46 9,6 C 9,4 C 7,8 C 99 % 1011,9 hPa 0,0 l/m 0 min 0 min 57 W/m 3,2 km/h (1 Bft) 97,87 %
13.11.2021 11:48 9,6 C 9,4 C 7,8 C 99 % 1011,9 hPa 0,0 l/m 0 min 0 min 66 W/m 3,2 km/h (1 Bft) 100,00 %
13.11.2021 11:50 9,7 C 9,4 C 7,8 C 99 % 1011,9 hPa 0,0 l/m 0 min 0 min 76 W/m 6,4 km/h (2 Bft) 100,00 %
13.11.2021 11:52 9,8 C 9,4 C 8,3 C 99 % 1011,9 hPa 0,0 l/m 0 min 0 min 83 W/m 6,4 km/h (2 Bft) 100,00 %
13.11.2021 11:54 9,9 C 9,4 C 8,3 C 99 % 1012,0 hPa 0,0 l/m 0 min 0 min 82 W/m 9,7 km/h (2 Bft) 100,00 %
13.11.2021 11:56 9,9 C 10,0 C 8,3 C 99 % 1012,0 hPa 0,0 l/m 0 min 0 min 71 W/m 6,4 km/h (2 Bft) 100,00 %
13.11.2021 11:58 9,9 C 10,0 C 8,3 C 99 % 1012,0 hPa 0,0 l/m 0 min 0 min 61 W/m 9,7 km/h (2 Bft) 100,00 %
13.11.2021 12:00 10,0 C 10,0 C 8,3 C 99 % 1012,0 hPa 0,0 l/m 0 min 0 min 73 W/m 6,4 km/h (2 Bft) 100,00 %
13.11.2021 12:02 10,0 C 10,0 C 8,3 C 99 % 1012,0 hPa 0,0 l/m 0 min 0 min 83 W/m 12,9 km/h (3 Bft) 97,83 %
13.11.2021 12:04 10,0 C 10,0 C 8,3 C 99 % 1012,0 hPa 0,0 l/m 0 min 0 min 98 W/m 6,4 km/h (2 Bft) 100,00 %
13.11.2021 12:08 10,1 C 10,0 C 8,3 C 99 % 1012,0 hPa 0,0 l/m 0 min 0 min 123 W/m 9,7 km/h (2 Bft) 100,00 %
13.11.2021 12:10 10,1 C 10,0 C 8,3 C 99 % 1012,0 hPa 0,0 l/m 0 min 0 min 104 W/m 12,9 km/h (3 Bft) 100,00 %
13.11.2021 12:12 10,2 C 10,0 C 8,3 C 99 % 1012,0 hPa 0,0 l/m 0 min 0 min 78 W/m 9,7 km/h (2 Bft) 97,83 %
13.11.2021 12:14 10,2 C 10,0 C 8,3 C 99 % 1012,0 hPa 0,0 l/m 0 min 0 min 64 W/m 6,4 km/h (2 Bft) 97,87 %
13.11.2021 12:16 10,3 C 10,0 C 8,3 C 99 % 1012,0 hPa 0,0 l/m 0 min 0 min 52 W/m 9,7 km/h (2 Bft) 100,00 %
13.11.2021 12:18 10,3 C 10,0 C 8,3 C 99 % 1012,0 hPa 0,0 l/m 0 min 0 min 59 W/m 16,1 km/h (3 Bft) 100,00 %
13.11.2021 12:20 10,3 C 10,0 C 8,3 C 99 % 1011,9 hPa 0,0 l/m 0 min 0 min 67 W/m 16,1 km/h (3 Bft) 100,00 %
13.11.2021 12:22 10,3 C 10,0 C 8,3 C 99 % 1011,9 hPa 0,0 l/m 0 min 0 min 94 W/m 12,9 km/h (3 Bft) 97,87 %
13.11.2021 12:24 10,3 C 10,6 C 8,3 C 99 % 1011,9 hPa 0,0 l/m 0 min 0 min 144 W/m 9,7 km/h (2 Bft) 97,83 %
13.11.2021 12:26 10,3 C 10,6 C 8,9 C 99 % 1012,0 hPa 0,0 l/m 0 min 0 min 170 W/m 9,7 km/h (2 Bft) 93,62 %
13.11.2021 12:28 10,4 C 10,6 C 8,9 C 99 % 1011,9 hPa 0,0 l/m 0 min 0 min 161 W/m 12,9 km/h (3 Bft) 97,87 %
13.11.2021 12:30 10,4 C 10,6 C 8,9 C 99 % 1011,9 hPa 0,0 l/m 0 min 0 min 145 W/m 6,4 km/h (2 Bft) 97,87 %
13.11.2021 12:32 10,4 C 10,6 C 8,9 C 99 % 1011,9 hPa 0,0 l/m 0 min 0 min 116 W/m 9,7 km/h (2 Bft) 97,96 %
13.11.2021 12:34 10,5 C 10,6 C 8,9 C 99 % 1011,9 hPa 0,0 l/m 0 min 0 min 100 W/m 9,7 km/h (2 Bft) 97,87 %
13.11.2021 12:36 10,5 C 10,6 C 8,9 C 99 % 1011,9 hPa 0,0 l/m 0 min 0 min 103 W/m 9,7 km/h (2 Bft) 97,87 %
13.11.2021 12:38 10,5 C 10,6 C 8,9 C 99 % 1011,8 hPa 0,0 l/m 0 min 0 min 104 W/m 12,9 km/h (3 Bft) 97,83 %
13.11.2021 12:40 10,5 C 10,6 C 8,9 C 99 % 1011,9 hPa 0,0 l/m 0 min 0 min 101 W/m 12,9 km/h (3 Bft) 97,87 %
13.11.2021 12:42 10,5 C 10,6 C 8,9 C 99 % 1011,9 hPa 0,0 l/m 0 min 0 min 93 W/m 6,4 km/h (2 Bft) 97,87 %
13.11.2021 12:44 10,6 C 10,6 C 8,9 C 99 % 1011,9 hPa 0,0 l/m 0 min 0 min 81 W/m 9,7 km/h (2 Bft) 95,74 %
13.11.2021 12:46 10,6 C 10,6 C 8,9 C 99 % 1011,9 hPa 0,0 l/m 0 min 0 min 66 W/m 6,4 km/h (2 Bft) 95,74 %
13.11.2021 12:48 10,6 C 10,6 C 8,9 C 99 % 1011,9 hPa 0,0 l/m 0 min 0 min 57 W/m 9,7 km/h (2 Bft) 97,83 %
13.11.2021 12:50 10,6 C 10,0 C 8,9 C 99 % 1011,9 hPa 0,0 l/m 0 min 0 min 50 W/m 12,9 km/h (3 Bft) 97,87 %
13.11.2021 12:52 10,5 C 10,0 C 8,9 C 99 % 1012,0 hPa 0,0 l/m 0 min 2 min 49 W/m 12,9 km/h (3 Bft) 97,87 %
13.11.2021 12:54 10,5 C 10,0 C 8,9 C 99 % 1011,9 hPa 0,0 l/m 0 min 0 min 56 W/m 6,4 km/h (2 Bft) 100,00 %
13.11.2021 12:56 10,5 C 10,0 C 8,9 C 99 % 1011,9 hPa 0,0 l/m 0 min 0 min 63 W/m 6,4 km/h (2 Bft) 97,87 %
13.11.2021 12:58 10,5 C 10,0 C 8,9 C 99 % 1012,0 hPa 0,0 l/m 0 min 0 min 70 W/m 9,7 km/h (2 Bft) 97,87 %
13.11.2021 13:00 10,5 C 10,0 C 8,9 C 99 % 1011,9 hPa 0,0 l/m 0 min 0 min 76 W/m 6,4 km/h (2 Bft) 100,00 %
13.11.2021 13:02 10,5 C 10,0 C 8,9 C 99 % 1011,8 hPa 0,0 l/m 0 min 0 min 93 W/m 6,4 km/h (2 Bft) 95,74 %
13.11.2021 13:04 10,6 C 10,6 C 8,9 C 99 % 1011,9 hPa 0,0 l/m 0 min 0 min 114 W/m 9,7 km/h (2 Bft) 100,00 %
13.11.2021 13:06 10,6 C 10,6 C 8,9 C 99 % 1011,9 hPa 0,0 l/m 0 min 0 min 131 W/m 3,2 km/h (1 Bft) 100,00 %
13.11.2021 13:08 10,6 C 10,6 C 8,9 C 99 % 1011,9 hPa 0,0 l/m 0 min 0 min 131 W/m 3,2 km/h (1 Bft) 97,87 %
13.11.2021 13:10 10,7 C 10,6 C 8,9 C 99 % 1011,9 hPa 0,2 l/m 0 min 0 min 112 W/m 3,2 km/h (1 Bft) 97,87 %
13.11.2021 13:12 10,7 C 10,6 C 8,9 C 99 % 1011,9 hPa 0,0 l/m 0 min 0 min 77 W/m 3,2 km/h (1 Bft) 97,83 %
13.11.2021 13:14 10,8 C 10,6 C 8,9 C 99 % 1012,0 hPa 0,0 l/m 0 min 0 min 56 W/m 3,2 km/h (1 Bft) 97,87 %
13.11.2021 13:16 10,8 C 10,6 C 8,9 C 99 % 1011,9 hPa 0,0 l/m 0 min 0 min 55 W/m 6,4 km/h (2 Bft) 95,74 %
13.11.2021 13:18 10,8 C 10,6 C 8,9 C 99 % 1011,9 hPa 0,0 l/m 0 min 0 min 68 W/m 3,2 km/h (1 Bft) 97,87 %
13.11.2021 13:20 10,8 C 10,6 C 8,9 C 99 % 1011,9 hPa 0,0 l/m 0 min 0 min 66 W/m 0,0 km/h (0 Bft) 97,87 %
13.11.2021 13:22 10,8 C 10,6 C 8,9 C 99 % 1011,9 hPa 0,0 l/m 0 min 0 min 70 W/m 0,0 km/h (0 Bft) 97,87 %
13.11.2021 13:24 10,8 C 10,6 C 8,9 C 99 % 1011,9 hPa 0,0 l/m 0 min 0 min 76 W/m 3,2 km/h (1 Bft) 97,83 %
13.11.2021 13:26 10,9 C 10,6 C 8,9 C 99 % 1011,9 hPa 0,0 l/m 0 min 0 min 76 W/m 3,2 km/h (1 Bft) 97,87 %
13.11.2021 13:28 10,9 C 10,6 C 8,9 C 99 % 1011,9 hPa 0,0 l/m 0 min 0 min 68 W/m 6,4 km/h (2 Bft) 97,87 %
13.11.2021 13:30 10,9 C 10,6 C 8,9 C 99 % 1011,9 hPa 0,0 l/m 0 min 0 min 55 W/m 3,2 km/h (1 Bft) 95,74 %
13.11.2021 13:32 10,9 C 10,6 C 8,9 C 99 % 1012,0 hPa 0,0 l/m 0 min 0 min 54 W/m 6,4 km/h (2 Bft) 95,74 %
13.11.2021 13:34 10,9 C 10,6 C 8,9 C 99 % 1011,9 hPa 0,0 l/m 0 min 0 min 56 W/m 3,2 km/h (1 Bft) 95,74 %
13.11.2021 13:36 10,9 C 10,6 C 8,9 C 99 % 1011,9 hPa 0,0 l/m 0 min 0 min 62 W/m 6,4 km/h (2 Bft) 93,48 %
13.11.2021 13:38 10,9 C 10,6 C 8,9 C 99 % 1011,9 hPa 0,0 l/m 0 min 0 min 58 W/m 6,4 km/h (2 Bft) 95,74 %
13.11.2021 13:40 10,9 C 10,6 C 8,9 C 99 % 1011,9 hPa 0,0 l/m 0 min 0 min 52 W/m 12,9 km/h (3 Bft) 93,62 %
13.11.2021 13:42 10,8 C 10,6 C 8,9 C 99 % 1011,9 hPa 0,0 l/m 0 min 0 min 63 W/m 3,2 km/h (1 Bft) 95,74 %
13.11.2021 13:44 10,9 C 10,6 C 8,9 C 99 % 1011,9 hPa 0,0 l/m 0 min 0 min 65 W/m 6,4 km/h (2 Bft) 95,74 %
13.11.2021 13:46 10,8 C 10,6 C 8,9 C 99 % 1012,0 hPa 0,0 l/m 0 min 2 min 61 W/m 3,2 km/h (1 Bft) 93,62 %
13.11.2021 13:48 10,8 C 10,6 C 8,9 C 99 % 1012,0 hPa 0,0 l/m 0 min 0 min 53 W/m 3,2 km/h (1 Bft) 95,65 %
13.11.2021 13:50 10,9 C 10,6 C 8,9 C 99 % 1012,0 hPa 0,0 l/m 0 min 0 min 42 W/m 0,0 km/h (0 Bft) 95,74 %
13.11.2021 13:52 10,8 C 10,6 C 8,9 C 99 % 1011,9 hPa 0,0 l/m 0 min 2 min 45 W/m 0,0 km/h (0 Bft) 93,62 %
13.11.2021 13:54 10,9 C 10,6 C 8,9 C 99 % 1012,0 hPa 0,2 l/m 0 min 2 min 42 W/m 3,2 km/h (1 Bft) 97,87 %
13.11.2021 13:56 10,9 C 10,6 C 8,9 C 99 % 1012,0 hPa 0,2 l/m 0 min 2 min 36 W/m 3,2 km/h (1 Bft) 97,87 %
13.11.2021 13:58 10,8 C 10,0 C 8,9 C 99 % 1012,0 hPa 0,0 l/m 0 min 2 min 28 W/m 3,2 km/h (1 Bft) 97,87 %
13.11.2021 14:00 10,8 C 10,0 C 8,9 C 99 % 1012,0 hPa 0,0 l/m 0 min 2 min 26 W/m 3,2 km/h (1 Bft) 97,83 %
13.11.2021 14:02 10,8 C 10,0 C 8,9 C 99 % 1012,0 hPa 0,0 l/m 0 min 2 min 26 W/m 3,2 km/h (1 Bft) 97,87 %
13.11.2021 14:04 10,8 C 10,0 C 8,9 C 99 % 1012,0 hPa 0,2 l/m 0 min 2 min 28 W/m 3,2 km/h (1 Bft) 95,74 %
13.11.2021 14:06 10,8 C 10,0 C 8,9 C 99 % 1011,9 hPa 0,0 l/m 0 min 2 min 27 W/m 3,2 km/h (1 Bft) 97,87 %
13.11.2021 14:08 10,8 C 10,0 C 8,9 C 99 % 1012,0 hPa 0,0 l/m 0 min 2 min 25 W/m 9,7 km/h (2 Bft) 97,87 %
13.11.2021 14:10 10,8 C 10,0 C 8,9 C 99 % 1012,0 hPa 0,0 l/m 0 min 0 min 27 W/m 3,2 km/h (1 Bft) 97,87 %
13.11.2021 14:12 10,8 C 10,0 C 8,9 C 98 % 1012,1 hPa 0,0 l/m 0 min 0 min 31 W/m 6,4 km/h (2 Bft) 97,83 %
13.11.2021 14:14 10,8 C 10,0 C 8,9 C 98 % 1012,1 hPa 0,0 l/m 0 min 0 min 45 W/m 3,2 km/h (1 Bft) 100,00 %
13.11.2021 14:16 10,8 C 10,0 C 8,9 C 98 % 1012,1 hPa 0,2 l/m 0 min 0 min 58 W/m 6,4 km/h (2 Bft) 97,87 %
13.11.2021 14:18 10,8 C 10,0 C 8,9 C 98 % 1012,1 hPa 0,0 l/m 0 min 0 min 55 W/m 6,4 km/h (2 Bft) 100,00 %
13.11.2021 14:20 10,8 C 10,0 C 8,9 C 98 % 1012,1 hPa 0,0 l/m 0 min 0 min 62 W/m 9,7 km/h (2 Bft) 97,87 %
13.11.2021 14:22 10,8 C 10,0 C 8,9 C 98 % 1012,1 hPa 0,0 l/m 0 min 0 min 66 W/m 6,4 km/h (2 Bft) 100,00 %
13.11.2021 14:24 10,8 C 10,0 C 8,9 C 98 % 1012,1 hPa 0,0 l/m 0 min 0 min 71 W/m 9,7 km/h (2 Bft) 97,83 %
13.11.2021 14:26 10,8 C 10,6 C 8,9 C 98 % 1012,1 hPa 0,0 l/m 0 min 0 min 78 W/m 3,2 km/h (1 Bft) 100,00 %
13.11.2021 14:28 10,8 C 10,6 C 8,9 C 98 % 1012,1 hPa 0,0 l/m 0 min 0 min 79 W/m 6,4 km/h (2 Bft) 97,22 %
13.11.2021 14:30 10,9 C 10,6 C 8,9 C 98 % 1012,1 hPa 0,0 l/m 0 min 0 min 93 W/m 3,2 km/h (1 Bft) 97,87 %
13.11.2021 14:32 10,9 C 10,6 C 9,4 C 98 % 1012,1 hPa 0,0 l/m 0 min 0 min 120 W/m 3,2 km/h (1 Bft) 97,87 %
13.11.2021 14:34 10,9 C 10,6 C 9,4 C 99 % 1012,1 hPa 0,0 l/m 0 min 0 min 120 W/m 6,4 km/h (2 Bft) 97,87 %
13.11.2021 14:36 10,9 C 10,6 C 9,4 C 99 % 1012,2 hPa 0,0 l/m 0 min 0 min 107 W/m 6,4 km/h (2 Bft) 95,65 %
13.11.2021 14:38 10,9 C 10,6 C 9,4 C 99 % 1012,2 hPa 0,0 l/m 0 min 0 min 87 W/m 3,2 km/h (1 Bft) 97,87 %
13.11.2021 14:40 11,0 C 10,6 C 9,4 C 99 % 1012,1 hPa 0,0 l/m 0 min 0 min 70 W/m 0,0 km/h (0 Bft) 97,87 %
13.11.2021 14:42 11,0 C 10,6 C 9,4 C 99 % 1012,2 hPa 0,0 l/m 0 min 0 min 50 W/m 3,2 km/h (1 Bft) 97,87 %
13.11.2021 14:44 11,0 C 10,6 C 9,4 C 99 % 1012,1 hPa 0,0 l/m 0 min 0 min 36 W/m 3,2 km/h (1 Bft) 97,87 %
13.11.2021 14:46 11,0 C 10,6 C 9,4 C 99 % 1012,2 hPa 0,0 l/m 0 min 0 min 30 W/m 3,2 km/h (1 Bft) 95,65 %
13.11.2021 14:48 11,0 C 10,6 C 9,4 C 99 % 1012,2 hPa 0,0 l/m 0 min 0 min 27 W/m 3,2 km/h (1 Bft) 97,87 %
13.11.2021 14:50 11,0 C 10,6 C 9,4 C 99 % 1012,2 hPa 0,0 l/m 0 min 0 min 25 W/m 3,2 km/h (1 Bft) 97,87 %
13.11.2021 14:52 11,0 C 10,6 C 9,4 C 99 % 1012,2 hPa 0,0 l/m 0 min 0 min 24 W/m 6,4 km/h (2 Bft) 97,87 %
13.11.2021 14:54 11,0 C 10,0 C 9,4 C 99 % 1012,2 hPa 0,0 l/m 0 min 0 min 27 W/m 0,0 km/h (0 Bft) 97,87 %
13.11.2021 14:56 10,9 C 10,6 C 8,9 C 99 % 1012,2 hPa 0,0 l/m 0 min 0 min 29 W/m 0,0 km/h (0 Bft) 97,87 %
13.11.2021 14:58 11,0 C 10,6 C 8,9 C 99 % 1012,2 hPa 0,0 l/m 0 min 0 min 33 W/m 0,0 km/h (0 Bft) 95,74 %
13.11.2021 15:00 10,9 C 10,6 C 8,9 C 99 % 1012,2 hPa 0,0 l/m 0 min 0 min 39 W/m 0,0 km/h (0 Bft) 97,83 %
13.11.2021 15:02 10,9 C 10,6 C 8,9 C 99 % 1012,3 hPa 0,0 l/m 0 min 0 min 44 W/m 0,0 km/h (0 Bft) 100,00 %
13.11.2021 15:04 10,9 C 10,6 C 8,9 C 99 % 1012,3 hPa 0,0 l/m 0 min 0 min 50 W/m 3,2 km/h (1 Bft) 100,00 %
13.11.2021 15:06 10,9 C 10,6 C 9,4 C 99 % 1012,2 hPa 0,0 l/m 0 min 0 min 58 W/m 0,0 km/h (0 Bft) 100,00 %
13.11.2021 15:08 10,9 C 10,6 C 8,9 C 99 % 1012,3 hPa 0,0 l/m 0 min 0 min 62 W/m 0,0 km/h (0 Bft) 100,00 %
13.11.2021 15:10 10,9 C 10,6 C 9,4 C 99 % 1012,3 hPa 0,0 l/m 0 min 0 min 63 W/m 3,2 km/h (1 Bft) 100,00 %
13.11.2021 15:12 10,9 C 10,6 C 9,4 C 99 % 1012,3 hPa 0,0 l/m 0 min 0 min 71 W/m 0,0 km/h (0 Bft) 97,87 %
13.11.2021 15:14 10,9 C 10,6 C 9,4 C 99 % 1012,3 hPa 0,0 l/m 0 min 0 min 70 W/m 3,2 km/h (1 Bft) 100,00 %
13.11.2021 15:16 10,9 C 10,6 C 9,4 C 99 % 1012,3 hPa 0,0 l/m 0 min 0 min 70 W/m 3,2 km/h (1 Bft) 100,00 %
13.11.2021 15:18 10,9 C 10,6 C 9,4 C 99 % 1012,3 hPa 0,0 l/m 0 min 0 min 71 W/m 0,0 km/h (0 Bft) 100,00 %
13.11.2021 15:20 10,9 C 10,6 C 9,4 C 99 % 1012,3 hPa 0,0 l/m 0 min 0 min 71 W/m 0,0 km/h (0 Bft) 100,00 %
13.11.2021 15:22 10,9 C 10,6 C 9,4 C 99 % 1012,3 hPa 0,0 l/m 0 min 0 min 64 W/m 0,0 km/h (0 Bft) 100,00 %
13.11.2021 15:24 11,0 C 10,6 C 9,4 C 99 % 1012,4 hPa 0,0 l/m 0 min 0 min 54 W/m 3,2 km/h (1 Bft) 100,00 %
13.11.2021 15:26 11,0 C 10,6 C 9,4 C 99 % 1012,3 hPa 0,0 l/m 0 min 0 min 53 W/m 0,0 km/h (0 Bft) 100,00 %
13.11.2021 15:28 11,0 C 10,6 C 9,4 C 99 % 1012,4 hPa 0,0 l/m 0 min 0 min 55 W/m 3,2 km/h (1 Bft) 97,87 %
13.11.2021 15:30 11,0 C 10,6 C 9,4 C 99 % 1012,4 hPa 0,0 l/m 0 min 0 min 53 W/m 3,2 km/h (1 Bft) 100,00 %
13.11.2021 15:32 11,0 C 10,6 C 9,4 C 99 % 1012,4 hPa 0,0 l/m 0 min 0 min 47 W/m 0,0 km/h (0 Bft) 100,00 %
13.11.2021 15:34 11,0 C 10,6 C 9,4 C 99 % 1012,4 hPa 0,0 l/m 0 min 0 min 41 W/m 0,0 km/h (0 Bft) 97,87 %
13.11.2021 15:36 11,0 C 10,6 C 9,4 C 99 % 1012,5 hPa 0,0 l/m 0 min 0 min 35 W/m 3,2 km/h (1 Bft) 100,00 %
13.11.2021 15:38 11,0 C 10,6 C 9,4 C 99 % 1012,5 hPa 0,0 l/m 0 min 0 min 30 W/m 0,0 km/h (0 Bft) 100,00 %
13.11.2021 15:40 11,0 C 10,6 C 9,4 C 99 % 1012,5 hPa 0,0 l/m 0 min 0 min 27 W/m 3,2 km/h (1 Bft) 100,00 %
13.11.2021 15:42 11,0 C 10,6 C 9,4 C 99 % 1012,5 hPa 0,0 l/m 0 min 0 min 26 W/m 3,2 km/h (1 Bft) 100,00 %
13.11.2021 15:44 11,0 C 10,6 C 9,4 C 99 % 1012,6 hPa 0,0 l/m 0 min 0 min 29 W/m 0,0 km/h (0 Bft) 97,83 %
13.11.2021 15:46 11,0 C 10,6 C 9,4 C 99 % 1012,6 hPa 0,0 l/m 0 min 0 min 32 W/m 0,0 km/h (0 Bft) 100,00 %
13.11.2021 15:48 11,0 C 10,6 C 9,4 C 99 % 1012,5 hPa 0,0 l/m 0 min 0 min 33 W/m 3,2 km/h (1 Bft) 100,00 %
13.11.2021 15:50 11,0 C 10,6 C 9,4 C 99 % 1012,6 hPa 0,0 l/m 0 min 0 min 30 W/m 3,2 km/h (1 Bft) 97,87 %
13.11.2021 15:52 11,0 C 10,6 C 9,4 C 99 % 1012,6 hPa 0,0 l/m 0 min 0 min 26 W/m 0,0 km/h (0 Bft) 95,74 %
13.11.2021 15:54 11,0 C 10,6 C 9,4 C 99 % 1012,6 hPa 0,0 l/m 0 min 0 min 21 W/m 0,0 km/h (0 Bft) 97,87 %
13.11.2021 15:56 11,0 C 10,6 C 9,4 C 99 % 1012,6 hPa 0,0 l/m 0 min 0 min 18 W/m 0,0 km/h (0 Bft) 97,83 %
13.11.2021 15:58 11,0 C 10,6 C 9,4 C 99 % 1012,6 hPa 0,0 l/m 0 min 0 min 18 W/m 0,0 km/h (0 Bft) 97,87 %
13.11.2021 16:00 11,0 C 10,6 C 9,4 C 99 % 1012,6 hPa 0,0 l/m 0 min 0 min 18 W/m 0,0 km/h (0 Bft) 97,87 %
13.11.2021 16:02 11,0 C 10,6 C 9,4 C 99 % 1012,6 hPa 0,0 l/m 0 min 0 min 16 W/m 0,0 km/h (0 Bft) 95,74 %
13.11.2021 16:04 11,0 C 10,6 C 8,9 C 99 % 1012,7 hPa 0,0 l/m 0 min 0 min 14 W/m 0,0 km/h (0 Bft) 97,87 %
13.11.2021 16:06 11,0 C 10,6 C 9,4 C 99 % 1012,7 hPa 0,0 l/m 0 min 0 min 12 W/m 0,0 km/h (0 Bft) 95,74 %
13.11.2021 16:08 11,0 C 10,6 C 8,9 C 99 % 1012,7 hPa 0,0 l/m 0 min 0 min 12 W/m 0,0 km/h (0 Bft) 97,83 %
13.11.2021 16:10 11,0 C 10,6 C 8,9 C 99 % 1012,7 hPa 0,0 l/m 0 min 0 min 11 W/m 0,0 km/h (0 Bft) 97,87 %
13.11.2021 16:12 11,0 C 10,6 C 8,9 C 99 % 1012,7 hPa 0,0 l/m 0 min 0 min 9 W/m 0,0 km/h (0 Bft) 95,74 %
13.11.2021 16:14 11,0 C 10,6 C 8,9 C 99 % 1012,7 hPa 0,0 l/m 0 min 0 min 11 W/m 0,0 km/h (0 Bft) 95,74 %
13.11.2021 16:16 11,0 C 10,6 C 8,9 C 99 % 1012,7 hPa 0,0 l/m 0 min 0 min 12 W/m 0,0 km/h (0 Bft) 93,62 %
13.11.2021 16:18 11,0 C 10,6 C 8,9 C 99 % 1012,8 hPa 0,0 l/m 0 min 0 min 12 W/m 0,0 km/h (0 Bft) 93,62 %
13.11.2021 16:20 11,0 C 10,6 C 8,9 C 99 % 1012,8 hPa 0,0 l/m 0 min 0 min 12 W/m 0,0 km/h (0 Bft) 95,65 %
13.11.2021 16:22 11,0 C 10,6 C 9,4 C 99 % 1012,8 hPa 0,0 l/m 0 min 0 min 11 W/m 0,0 km/h (0 Bft) 91,49 %
13.11.2021 16:24 11,0 C 10,6 C 8,9 C 99 % 1012,8 hPa 0,0 l/m 0 min 0 min 9 W/m 0,0 km/h (0 Bft) 91,49 %
13.11.2021 16:26 11,0 C 10,0 C 8,9 C 99 % 1012,8 hPa 0,0 l/m 0 min 0 min 11 W/m 0,0 km/h (0 Bft) 95,74 %
13.11.2021 16:28 11,0 C 10,0 C 8,9 C 99 % 1012,9 hPa 0,0 l/m 0 min 0 min 11 W/m 0,0 km/h (0 Bft) 93,62 %
13.11.2021 16:30 11,0 C 10,0 C 8,9 C 99 % 1012,8 hPa 0,0 l/m 0 min 0 min 9 W/m 3,2 km/h (1 Bft) 93,62 %
13.11.2021 16:32 11,0 C 10,0 C 8,9 C 99 % 1012,8 hPa 0,0 l/m 0 min 0 min 7 W/m 0,0 km/h (0 Bft) 93,48 %
13.11.2021 16:34 11,0 C 10,0 C 8,9 C 99 % 1012,9 hPa 0,0 l/m 0 min 0 min 5 W/m 0,0 km/h (0 Bft) 93,62 %
13.11.2021 16:36 10,9 C 10,0 C 8,9 C 99 % 1012,9 hPa 0,0 l/m 0 min 0 min 4 W/m 3,2 km/h (1 Bft) 93,62 %
13.11.2021 16:38 10,9 C 10,0 C 8,9 C 99 % 1013,0 hPa 0,0 l/m 0 min 0 min 0 W/m 3,2 km/h (1 Bft) 93,62 %
13.11.2021 16:40 10,9 C 10,0 C 8,9 C 99 % 1013,0 hPa 0,0 l/m 0 min 0 min 0 W/m 0,0 km/h (0 Bft) 95,74 %
13.11.2021 16:42 10,9 C 10,0 C 8,9 C 99 % 1013,0 hPa 0,0 l/m 0 min 0 min 0 W/m 0,0 km/h (0 Bft) 95,65 %
13.11.2021 16:44 10,9 C 10,0 C 8,9 C 99 % 1013,0 hPa 0,0 l/m 0 min 0 min 0 W/m 0,0 km/h (0 Bft) 93,62 %
13.11.2021 16:46 10,9 C 10,0 C 8,9 C 99 % 1013,1 hPa 0,0 l/m 0 min 0 min 0 W/m 0,0 km/h (0 Bft) 95,74 %
13.11.2021 16:48 10,9 C 10,0 C 8,9 C 99 % 1013,1 hPa 0,0 l/m 0 min 0 min 0 W/m 0,0 km/h (0 Bft) 95,74 %
13.11.2021 16:50 10,9 C 10,0 C 8,9 C 98 % 1013,0 hPa 0,0 l/m 0 min 0 min 0 W/m 3,2 km/h (1 Bft) 95,24 %
13.11.2021 16:52 10,8 C 10,0 C 8,9 C 98 % 1013,1 hPa 0,0 l/m 0 min 0 min 0 W/m 3,2 km/h (1 Bft) 96,61 %
13.11.2021 16:54 10,8 C 10,0 C 8,9 C 98 % 1013,1 hPa 0,0 l/m 0 min 0 min 0 W/m 3,2 km/h (1 Bft) 94,87 %
13.11.2021 16:56 10,7 C 9,4 C 8,9 C 98 % 1013,0 hPa 0,0 l/m 0 min 0 min 0 W/m 6,4 km/h (2 Bft) 95,74 %
13.11.2021 16:58 10,7 C 9,4 C 8,9 C 98 % 1013,1 hPa 0,0 l/m 0 min 0 min 0 W/m 3,2 km/h (1 Bft) 95,74 %
13.11.2021 17:00 10,6 C 9,4 C 8,9 C 98 % 1013,2 hPa 0,0 l/m 0 min 0 min 0 W/m 3,2 km/h (1 Bft) 95,35 %
13.11.2021 17:02 10,6 C 9,4 C 8,9 C 98 % 1013,2 hPa 0,0 l/m 0 min 0 min 0 W/m 3,2 km/h (1 Bft) 95,74 %
13.11.2021 17:04 10,6 C 9,4 C 8,9 C 98 % 1013,2 hPa 0,0 l/m 0 min 0 min 0 W/m 3,2 km/h (1 Bft) 100,00 %
13.11.2021 17:06 10,6 C 9,4 C 8,9 C 98 % 1013,2 hPa 0,0 l/m 0 min 0 min 0 W/m 6,4 km/h (2 Bft) 100,00 %
13.11.2021 17:08 10,5 C 9,4 C 8,9 C 98 % 1013,2 hPa 0,0 l/m 0 min 0 min 0 W/m 6,4 km/h (2 Bft) 100,00 %
13.11.2021 17:10 10,5 C 9,4 C 8,9 C 98 % 1013,2 hPa 0,0 l/m 0 min 0 min 0 W/m 3,2 km/h (1 Bft) 93,48 %
13.11.2021 17:12 10,4 C 9,4 C 8,9 C 98 % 1013,1 hPa 0,0 l/m 0 min 0 min 0 W/m 3,2 km/h (1 Bft) 100,00 %
13.11.2021 17:14 10,4 C 9,4 C 8,9 C 98 % 1013,1 hPa 0,0 l/m 0 min 0 min 0 W/m 3,2 km/h (1 Bft) 100,00 %
13.11.2021 17:16 10,4 C 9,4 C 8,9 C 98 % 1013,2 hPa 0,0 l/m 0 min 0 min 0 W/m 0,0 km/h (0 Bft) 100,00 %
13.11.2021 17:18 10,4 C 9,4 C 8,9 C 98 % 1013,2 hPa 0,0 l/m 0 min 0 min 0 W/m 3,2 km/h (1 Bft) 97,83 %
13.11.2021 17:20 10,4 C 9,4 C 8,9 C 98 % 1013,2 hPa 0,0 l/m 0 min 0 min 0 W/m 6,4 km/h (2 Bft) 100,00 %
13.11.2021 17:22 10,3 C 9,4 C 8,9 C 98 % 1013,2 hPa 0,0 l/m 0 min 0 min 0 W/m 3,2 km/h (1 Bft) 100,00 %
13.11.2021 17:24 10,3 C 9,4 C 8,9 C 98 % 1013,1 hPa 0,0 l/m 0 min 0 min 0 W/m 0,0 km/h (0 Bft) 97,87 %
13.11.2021 17:26 10,3 C 9,4 C 8,9 C 98 % 1013,2 hPa 0,0 l/m 0 min 0 min 0 W/m 3,2 km/h (1 Bft) 100,00 %
13.11.2021 17:28 10,2 C 9,4 C 8,9 C 98 % 1013,1 hPa 0,0 l/m 0 min 0 min 0 W/m 3,2 km/h (1 Bft) 100,00 %
13.11.2021 17:30 10,2 C 9,4 C 8,3 C 98 % 1013,2 hPa 0,0 l/m 0 min 0 min 0 W/m 6,4 km/h (2 Bft) 100,00 %
13.11.2021 17:32 10,1 C 9,4 C 8,3 C 98 % 1013,2 hPa 0,0 l/m 0 min 0 min 0 W/m 3,2 km/h (1 Bft) 95,74 %
13.11.2021 17:34 10,1 C 9,4 C 8,3 C 98 % 1013,2 hPa 0,0 l/m 0 min 0 min 0 W/m 3,2 km/h (1 Bft) 100,00 %
13.11.2021 17:36 10,1 C 9,4 C 8,9 C 98 % 1013,2 hPa 0,0 l/m 0 min 0 min 0 W/m 3,2 km/h (1 Bft) 100,00 %
13.11.2021 17:38 10,1 C 9,4 C 8,3 C 98 % 1013,3 hPa 0,0 l/m 0 min 0 min 0 W/m 3,2 km/h (1 Bft) 100,00 %
13.11.2021 17:40 10,0 C 9,4 C 8,3 C 98 % 1013,3 hPa 0,0 l/m 0 min 0 min 0 W/m 3,2 km/h (1 Bft) 100,00 %
13.11.2021 17:42 10,0 C 9,4 C 8,3 C 98 % 1013,3 hPa 0,0 l/m 0 min 0 min 0 W/m 0,0 km/h (0 Bft) 97,83 %
13.11.2021 17:44 10,0 C 9,4 C 8,3 C 98 % 1013,4 hPa 0,0 l/m 0 min 0 min 0 W/m 6,4 km/h (2 Bft) 100,00 %
13.11.2021 17:46 10,0 C 9,4 C 8,3 C 98 % 1013,4 hPa 0,0 l/m 0 min 0 min 0 W/m 6,4 km/h (2 Bft) 100,00 %
13.11.2021 17:48 10,0 C 9,4 C 8,3 C 98 % 1013,4 hPa 0,0 l/m 0 min 0 min 0 W/m 6,4 km/h (2 Bft) 100,00 %
13.11.2021 17:50 10,0 C 9,4 C 8,3 C 98 % 1013,5 hPa 0,0 l/m 0 min 0 min 0 W/m 3,2 km/h (1 Bft) 100,00 %
13.11.2021 17:52 9,9 C 8,9 C 8,3 C 98 % 1013,5 hPa 0,0 l/m 0 min 0 min 0 W/m 3,2 km/h (1 Bft) 100,00 %
13.11.2021 17:54 9,9 C 8,9 C 8,3 C 98 % 1013,5 hPa 0,0 l/m 0 min 0 min 0 W/m 3,2 km/h (1 Bft) 97,83 %
13.11.2021 17:56 9,9 C 8,9 C 8,3 C 98 % 1013,5 hPa 0,0 l/m 0 min 0 min 0 W/m 3,2 km/h (1 Bft) 97,87 %
13.11.2021 17:58 9,9 C 8,9 C 8,3 C 98 % 1013,6 hPa 0,0 l/m 0 min 0 min 0 W/m 3,2 km/h (1 Bft) 100,00 %
13.11.2021 18:00 9,9 C 8,9 C 8,3 C 98 % 1013,5 hPa 0,0 l/m 0 min 0 min 0 W/m 3,2 km/h (1 Bft) 100,00 %
13.11.2021 18:02 9,8 C 8,9 C 8,3 C 98 % 1013,5 hPa 0,0 l/m 0 min 0 min 0 W/m 0,0 km/h (0 Bft) 97,87 %
13.11.2021 18:04 9,9 C 8,9 C 8,3 C 98 % 1013,6 hPa 0,0 l/m 0 min 0 min 0 W/m 0,0 km/h (0 Bft) 97,87 %
13.11.2021 18:06 9,8 C 8,9 C 8,3 C 98 % 1013,7 hPa 0,0 l/m 0 min 2 min 0 W/m 3,2 km/h (1 Bft) 100,00 %
13.11.2021 18:08 9,8 C 8,9 C 8,3 C 98 % 1013,7 hPa 0,0 l/m 0 min 2 min 0 W/m 3,2 km/h (1 Bft) 100,00 %
13.11.2021 18:10 9,8 C 8,9 C 8,3 C 98 % 1013,7 hPa 0,0 l/m 0 min 0 min 0 W/m 3,2 km/h (1 Bft) 97,87 %
13.11.2021 18:12 9,8 C 8,9 C 8,3 C 98 % 1013,7 hPa 0,0 l/m 0 min 0 min 0 W/m 3,2 km/h (1 Bft) 100,00 %
13.11.2021 18:14 9,8 C 8,9 C 8,3 C 98 % 1013,8 hPa 0,0 l/m 0 min 0 min 0 W/m 3,2 km/h (1 Bft) 97,87 %
13.11.2021 18:16 9,8 C 8,9 C 8,3 C 98 % 1013,8 hPa 0,0 l/m 0 min 2 min 0 W/m 3,2 km/h (1 Bft) 100,00 %
13.11.2021 18:18 9,8 C 8,9 C 8,3 C 98 % 1013,8 hPa 0,2 l/m 0 min 2 min 0 W/m 3,2 km/h (1 Bft) 100,00 %
13.11.2021 18:20 9,8 C 8,9 C 8,3 C 98 % 1013,8 hPa 0,0 l/m 0 min 2 min 0 W/m 3,2 km/h (1 Bft) 93,62 %
13.11.2021 18:22 9,8 C 8,9 C 8,3 C 98 % 1013,8 hPa 0,0 l/m 0 min 2 min 0 W/m 6,4 km/h (2 Bft) 95,74 %
13.11.2021 18:24 9,8 C 8,9 C 8,3 C 98 % 1013,9 hPa 0,0 l/m 0 min 0 min 0 W/m 3,2 km/h (1 Bft) 97,87 %
13.11.2021 18:26 9,7 C 8,9 C 8,3 C 98 % 1013,9 hPa 0,0 l/m 0 min 0 min 0 W/m 3,2 km/h (1 Bft) 97,87 %
13.11.2021 18:28 9,7 C 8,9 C 8,3 C 98 % 1013,9 hPa 0,0 l/m 0 min 0 min 0 W/m 3,2 km/h (1 Bft) 97,87 %
13.11.2021 18:30 9,7 C 8,9 C 8,3 C 98 % 1014,0 hPa 0,0 l/m 0 min 0 min 0 W/m 3,2 km/h (1 Bft) 95,65 %
13.11.2021 18:32 9,7 C 8,9 C 8,3 C 98 % 1014,0 hPa 0,0 l/m 0 min 2 min 0 W/m 3,2 km/h (1 Bft) 91,49 %
13.11.2021 18:34 9,7 C 8,9 C 8,3 C 98 % 1014,0 hPa 0,0 l/m 0 min 2 min 0 W/m 0,0 km/h (0 Bft) 95,74 %
13.11.2021 18:36 9,6 C 8,9 C 8,3 C 98 % 1014,0 hPa 0,0 l/m 0 min 2 min 0 W/m 3,2 km/h (1 Bft) 93,62 %
13.11.2021 18:38 9,6 C 8,9 C 8,3 C 98 % 1014,0 hPa 0,2 l/m 0 min 2 min 0 W/m 0,0 km/h (0 Bft) 93,62 %
13.11.2021 18:40 9,6 C 8,9 C 8,3 C 98 % 1014,0 hPa 0,0 l/m 0 min 2 min 0 W/m 3,2 km/h (1 Bft) 95,74 %
13.11.2021 18:42 9,6 C 8,9 C 8,3 C 98 % 1014,1 hPa 0,2 l/m 0 min 2 min 0 W/m 3,2 km/h (1 Bft) 95,65 %
13.11.2021 18:44 9,6 C 8,9 C 8,3 C 98 % 1014,1 hPa 0,0 l/m 0 min 2 min 0 W/m 3,2 km/h (1 Bft) 95,74 %
13.11.2021 18:46 9,6 C 8,9 C 8,3 C 98 % 1014,1 hPa 0,2 l/m 0 min 2 min 0 W/m 0,0 km/h (0 Bft) 95,74 %
13.11.2021 18:48 9,6 C 8,9 C 8,3 C 98 % 1014,1 hPa 0,0 l/m 0 min 2 min 0 W/m 0,0 km/h (0 Bft) 93,62 %
13.11.2021 18:50 9,6 C 8,9 C 8,3 C 98 % 1014,1 hPa 0,0 l/m 0 min 0 min 0 W/m 0,0 km/h (0 Bft) 93,62 %
13.11.2021 18:52 9,6 C 8,9 C 8,3 C 98 % 1014,1 hPa 0,0 l/m 0 min 0 min 0 W/m 0,0 km/h (0 Bft) 93,48 %
13.11.2021 18:54 9,6 C 8,9 C 8,3 C 98 % 1014,2 hPa 0,0 l/m 0 min 0 min 0 W/m 0,0 km/h (0 Bft) 93,62 %
13.11.2021 18:56 9,6 C 8,9 C 8,3 C 98 % 1014,2 hPa 0,0 l/m 0 min 0 min 0 W/m 3,2 km/h (1 Bft) 95,74 %
13.11.2021 18:58 9,6 C 8,9 C 8,3 C 98 % 1014,2 hPa 0,0 l/m 0 min 0 min 0 W/m 0,0 km/h (0 Bft) 95,74 %
13.11.2021 19:00 9,5 C 8,9 C 8,3 C 98 % 1014,2 hPa 0,0 l/m 0 min 0 min 0 W/m 3,2 km/h (1 Bft) 95,74 %
13.11.2021 19:02 9,5 C 8,9 C 8,3 C 98 % 1014,2 hPa 0,0 l/m 0 min 0 min 0 W/m 3,2 km/h (1 Bft) 100,00 %
13.11.2021 19:04 9,5 C 8,9 C 8,3 C 98 % 1014,3 hPa 0,0 l/m 0 min 0 min 0 W/m 3,2 km/h (1 Bft) 100,00 %
13.11.2021 19:06 9,5 C 8,9 C 8,3 C 98 % 1014,3 hPa 0,0 l/m 0 min 0 min 0 W/m 3,2 km/h (1 Bft) 97,87 %
13.11.2021 19:08 9,5 C 8,9 C 8,3 C 98 % 1014,3 hPa 0,0 l/m 0 min 0 min 0 W/m 0,0 km/h (0 Bft) 97,87 %
13.11.2021 19:10 9,5 C 8,9 C 8,3 C 98 % 1014,3 hPa 0,0 l/m 0 min 0 min 0 W/m 3,2 km/h (1 Bft) 97,87 %
13.11.2021 19:12 9,5 C 8,9 C 8,3 C 98 % 1014,4 hPa 0,0 l/m 0 min 0 min 0 W/m 3,2 km/h (1 Bft) 97,87 %
13.11.2021 19:14 9,5 C 8,9 C 8,3 C 98 % 1014,4 hPa 0,0 l/m 0 min 0 min 0 W/m 3,2 km/h (1 Bft) 95,74 %
13.11.2021 19:16 9,5 C 8,9 C 8,3 C 98 % 1014,4 hPa 0,0 l/m 0 min 0 min 0 W/m 0,0 km/h (0 Bft) 95,65 %
13.11.2021 19:18 9,5 C 8,9 C 8,3 C 98 % 1014,4 hPa 0,0 l/m 0 min 0 min 0 W/m 3,2 km/h (1 Bft) 97,87 %
13.11.2021 19:20 9,5 C 8,9 C 8,3 C 98 % 1014,4 hPa 0,0 l/m 0 min 0 min 0 W/m 3,2 km/h (1 Bft) 95,74 %
13.11.2021 19:22 9,5 C 8,9 C 8,3 C 98 % 1014,4 hPa 0,0 l/m 0 min 0 min 0 W/m 3,2 km/h (1 Bft) 97,87 %
13.11.2021 19:24 9,5 C 8,9 C 8,3 C 98 % 1014,5 hPa 0,0 l/m 0 min 0 min 0 W/m 3,2 km/h (1 Bft) 97,87 %
13.11.2021 19:26 9,5 C 8,9 C 8,3 C 98 % 1014,5 hPa 0,0 l/m 0 min 0 min 0 W/m 3,2 km/h (1 Bft) 97,87 %
13.11.2021 19:28 9,5 C 8,9 C 8,3 C 98 % 1014,5 hPa 0,0 l/m 0 min 0 min 0 W/m 3,2 km/h (1 Bft) 97,87 %
13.11.2021 19:30 9,5 C 8,9 C 8,3 C 98 % 1014,5 hPa 0,0 l/m 0 min 0 min 0 W/m 3,2 km/h (1 Bft) 97,83 %
13.11.2021 19:32 9,5 C 8,9 C 8,3 C 98 % 1014,5 hPa 0,0 l/m 0 min 0 min 0 W/m 3,2 km/h (1 Bft) 97,87 %
13.11.2021 19:34 9,5 C 8,9 C 8,3 C 98 % 1014,6 hPa 0,0 l/m 0 min 0 min 0 W/m 3,2 km/h (1 Bft) 95,74 %
13.11.2021 19:36 9,5 C 8,9 C 8,3 C 98 % 1014,6 hPa 0,0 l/m 0 min 0 min 0 W/m 3,2 km/h (1 Bft) 97,87 %
13.11.2021 19:38 9,5 C 8,9 C 8,3 C 98 % 1014,6 hPa 0,0 l/m 0 min 0 min 0 W/m 3,2 km/h (1 Bft) 97,87 %
13.11.2021 19:40 9,5 C 8,9 C 8,3 C 98 % 1014,7 hPa 0,0 l/m 0 min 0 min 0 W/m 3,2 km/h (1 Bft) 97,83 %
13.11.2021 19:42 9,5 C 8,9 C 8,3 C 98 % 1014,7 hPa 0,0 l/m 0 min 0 min 0 W/m 3,2 km/h (1 Bft) 95,74 %
13.11.2021 19:44 9,4 C 8,9 C 8,3 C 98 % 1014,7 hPa 0,0 l/m 0 min 0 min 0 W/m 0,0 km/h (0 Bft) 97,87 %
13.11.2021 19:46 9,5 C 8,9 C 8,3 C 98 % 1014,8 hPa 0,0 l/m 0 min 0 min 0 W/m 3,2 km/h (1 Bft) 95,74 %
13.11.2021 19:48 9,4 C 8,9 C 8,3 C 98 % 1014,8 hPa 0,0 l/m 0 min 0 min 0 W/m 0,0 km/h (0 Bft) 97,87 %
13.11.2021 19:50 9,4 C 8,9 C 8,3 C 98 % 1014,8 hPa 0,0 l/m 0 min 0 min 0 W/m 0,0 km/h (0 Bft) 95,74 %
13.11.2021 19:52 9,4 C 8,9 C 8,3 C 98 % 1014,8 hPa 0,0 l/m 0 min 0 min 0 W/m 0,0 km/h (0 Bft) 97,83 %
13.11.2021 19:54 9,4 C 8,9 C 8,3 C 98 % 1014,8 hPa 0,0 l/m 0 min 0 min 0 W/m 0,0 km/h (0 Bft) 97,87 %
13.11.2021 19:56 9,4 C 8,9 C 8,3 C 98 % 1014,8 hPa 0,0 l/m 0 min 0 min 0 W/m 0,0 km/h (0 Bft) 93,62 %
13.11.2021 19:58 9,4 C 8,9 C 8,3 C 98 % 1014,8 hPa 0,0 l/m 0 min 0 min 0 W/m 0,0 km/h (0 Bft) 97,87 %
13.11.2021 20:00 9,4 C 8,9 C 8,3 C 98 % 1014,8 hPa 0,0 l/m 0 min 0 min 0 W/m 0,0 km/h (0 Bft) 97,87 %
13.11.2021 20:02 9,4 C 8,9 C 8,3 C 98 % 1014,8 hPa 0,0 l/m 0 min 0 min 0 W/m 0,0 km/h (0 Bft) 100,00 %
13.11.2021 20:04 9,4 C 8,9 C 8,3 C 98 % 1014,8 hPa 0,0 l/m 0 min 0 min 0 W/m 0,0 km/h (0 Bft) 100,00 %
13.11.2021 20:06 9,4 C 8,9 C 8,3 C 98 % 1014,8 hPa 0,0 l/m 0 min 0 min 0 W/m 0,0 km/h (0 Bft) 100,00 %
13.11.2021 20:08 9,4 C 8,9 C 8,3 C 98 % 1014,9 hPa 0,0 l/m 0 min 0 min 0 W/m 0,0 km/h (0 Bft) 95,74 %
13.11.2021 20:10 9,4 C 8,9 C 8,3 C 98 % 1014,8 hPa 0,0 l/m 0 min 0 min 0 W/m 0,0 km/h (0 Bft) 97,87 %
13.11.2021 20:12 9,4 C 8,9 C 8,3 C 98 % 1014,9 hPa 0,0 l/m 0 min 0 min 0 W/m 0,0 km/h (0 Bft) 100,00 %
13.11.2021 20:14 9,4 C 8,9 C 8,3 C 98 % 1014,9 hPa 0,0 l/m 0 min 0 min 0 W/m 3,2 km/h (1 Bft) 95,74 %
13.11.2021 20:16 9,4 C 8,9 C 8,3 C 98 % 1014,9 hPa 0,0 l/m 0 min 0 min 0 W/m 3,2 km/h (1 Bft) 97,83 %
13.11.2021 20:18 9,4 C 8,9 C 8,3 C 98 % 1015,0 hPa 0,0 l/m 0 min 0 min 0 W/m 3,2 km/h (1 Bft) 100,00 %
13.11.2021 20:20 9,4 C 8,9 C 8,3 C 98 % 1014,9 hPa 0,0 l/m 0 min 0 min 0 W/m 3,2 km/h (1 Bft) 100,00 %
13.11.2021 20:22 9,4 C 8,9 C 8,3 C 98 % 1014,9 hPa 0,0 l/m 0 min 0 min 0 W/m 0,0 km/h (0 Bft) 97,87 %
13.11.2021 20:24 9,4 C 8,9 C 8,3 C 98 % 1015,0 hPa 0,0 l/m 0 min 0 min 0 W/m 3,2 km/h (1 Bft) 95,74 %
13.11.2021 20:26 9,4 C 8,9 C 8,3 C 98 % 1015,0 hPa 0,0 l/m 0 min 0 min 0 W/m 3,2 km/h (1 Bft) 97,87 %
13.11.2021 20:28 9,4 C 8,9 C 8,3 C 98 % 1015,1 hPa 0,0 l/m 0 min 0 min 0 W/m 3,2 km/h (1 Bft) 97,83 %
13.11.2021 20:30 9,4 C 8,9 C 8,3 C 98 % 1015,1 hPa 0,0 l/m 0 min 0 min 0 W/m 0,0 km/h (0 Bft) 97,87 %
13.11.2021 20:32 9,4 C 8,9 C 8,3 C 98 % 1015,1 hPa 0,0 l/m 0 min 0 min 0 W/m 3,2 km/h (1 Bft) 97,87 %
13.11.2021 20:34 9,4 C 8,9 C 8,3 C 98 % 1015,0 hPa 0,0 l/m 0 min 0 min 0 W/m 0,0 km/h (0 Bft) 97,87 %
13.11.2021 20:36 9,4 C 8,9 C 8,3 C 98 % 1015,1 hPa 0,0 l/m 0 min 0 min 0 W/m 3,2 km/h (1 Bft) 97,87 %
13.11.2021 20:38 9,4 C 8,9 C 8,3 C 98 % 1015,1 hPa 0,0 l/m 0 min 0 min 0 W/m 0,0 km/h (0 Bft) 95,65 %
13.11.2021 20:40 9,4 C 8,3 C 8,3 C 98 % 1015,1 hPa 0,0 l/m 0 min 0 min 0 W/m 3,2 km/h (1 Bft) 97,87 %
13.11.2021 20:42 9,4 C 8,3 C 8,3 C 98 % 1015,0 hPa 0,0 l/m 0 min 0 min 0 W/m 3,2 km/h (1 Bft) 97,87 %
13.11.2021 20:44 9,4 C 8,3 C 8,3 C 98 % 1015,1 hPa 0,0 l/m 0 min 0 min 0 W/m 3,2 km/h (1 Bft) 97,87 %
13.11.2021 20:46 9,3 C 8,3 C 8,3 C 98 % 1015,1 hPa 0,0 l/m 0 min 0 min 0 W/m 3,2 km/h (1 Bft) 97,87 %
13.11.2021 20:48 9,3 C 8,3 C 8,3 C 98 % 1015,1 hPa 0,0 l/m 0 min 0 min 0 W/m 3,2 km/h (1 Bft) 95,74 %
13.11.2021 20:50 9,3 C 8,3 C 8,3 C 98 % 1015,1 hPa 0,0 l/m 0 min 0 min 0 W/m 3,2 km/h (1 Bft) 95,65 %
13.11.2021 20:52 9,3 C 8,3 C 8,3 C 98 % 1015,1 hPa 0,0 l/m 0 min 0 min 0 W/m 3,2 km/h (1 Bft) 95,74 %
13.11.2021 20:54 9,3 C 8,3 C 8,3 C 98 % 1015,1 hPa 0,0 l/m 0 min 0 min 0 W/m 3,2 km/h (1 Bft) 93,62 %
13.11.2021 20:56 9,3 C 8,3 C 8,3 C 98 % 1015,2 hPa 0,0 l/m 0 min 0 min 0 W/m 3,2 km/h (1 Bft) 97,87 %
13.11.2021 20:58 9,3 C 8,3 C 8,3 C 98 % 1015,2 hPa 0,0 l/m 0 min 0 min 0 W/m 6,4 km/h (2 Bft) 97,87 %
13.11.2021 21:00 9,3 C 8,3 C 8,3 C 98 % 1015,2 hPa 0,0 l/m 0 min 0 min 0 W/m 3,2 km/h (1 Bft) 97,87 %
13.11.2021 21:02 9,3 C 8,3 C 7,8 C 98 % 1015,2 hPa 0,0 l/m 0 min 0 min 0 W/m 3,2 km/h (1 Bft) 97,83 %
13.11.2021 21:04 9,3 C 8,3 C 7,8 C 98 % 1015,1 hPa 0,0 l/m 0 min 0 min 0 W/m 3,2 km/h (1 Bft) 97,87 %
13.11.2021 21:06 9,2 C 8,3 C 7,8 C 98 % 1015,2 hPa 0,0 l/m 0 min 0 min 0 W/m 3,2 km/h (1 Bft) 97,87 %
13.11.2021 21:08 9,2 C 8,3 C 7,8 C 98 % 1015,2 hPa 0,0 l/m 0 min 0 min 0 W/m 3,2 km/h (1 Bft) 97,87 %
13.11.2021 21:10 9,2 C 8,3 C 7,8 C 98 % 1015,2 hPa 0,0 l/m 0 min 0 min 0 W/m 3,2 km/h (1 Bft) 97,87 %
13.11.2021 21:12 9,1 C 8,3 C 7,8 C 98 % 1015,2 hPa 0,0 l/m 0 min 0 min 0 W/m 3,2 km/h (1 Bft) 95,74 %
13.11.2021 21:14 9,1 C 8,3 C 7,8 C 98 % 1015,2 hPa 0,0 l/m 0 min 0 min 0 W/m 3,2 km/h (1 Bft) 97,83 %
13.11.2021 21:16 9,1 C 8,3 C 7,8 C 98 % 1015,2 hPa 0,0 l/m 0 min 0 min 0 W/m 0,0 km/h (0 Bft) 97,87 %
13.11.2021 21:18 9,1 C 8,3 C 7,8 C 98 % 1015,3 hPa 0,0 l/m 0 min 0 min 0 W/m 0,0 km/h (0 Bft) 97,87 %
13.11.2021 21:20 9,1 C 8,3 C 7,8 C 98 % 1015,3 hPa 0,0 l/m 0 min 0 min 0 W/m 0,0 km/h (0 Bft) 97,87 %
13.11.2021 21:22 9,0 C 8,3 C 7,8 C 98 % 1015,3 hPa 0,0 l/m 0 min 0 min 0 W/m 0,0 km/h (0 Bft) 97,87 %
13.11.2021 21:24 9,0 C 7,8 C 7,8 C 98 % 1015,3 hPa 0,0 l/m 0 min 0 min 0 W/m 0,0 km/h (0 Bft) 95,74 %
13.11.2021 21:26 9,0 C 7,8 C 7,8 C 98 % 1015,3 hPa 0,0 l/m 0 min 0 min 0 W/m 0,0 km/h (0 Bft) 97,83 %
13.11.2021 21:28 9,0 C 7,8 C 7,8 C 98 % 1015,4 hPa 0,0 l/m 0 min 0 min 0 W/m 0,0 km/h (0 Bft) 97,87 %
13.11.2021 21:30 9,0 C 7,8 C 7,2 C 98 % 1015,4 hPa 0,0 l/m 0 min 0 min 0 W/m 0,0 km/h (0 Bft) 100,00 %
13.11.2021 21:32 8,9 C 7,8 C 7,2 C 98 % 1015,4 hPa 0,0 l/m 0 min 0 min 0 W/m 0,0 km/h (0 Bft) 100,00 %
13.11.2021 21:34 8,9 C 7,8 C 7,2 C 98 % 1015,4 hPa 0,0 l/m 0 min 0 min 0 W/m 0,0 km/h (0 Bft) 100,00 %
13.11.2021 21:36 8,9 C 7,8 C 7,2 C 98 % 1015,5 hPa 0,0 l/m 0 min 0 min 0 W/m 0,0 km/h (0 Bft) 100,00 %
13.11.2021 21:38 8,9 C 7,8 C 7,2 C 98 % 1015,4 hPa 0,0 l/m 0 min 0 min 0 W/m 0,0 km/h (0 Bft) 100,00 %
13.11.2021 21:40 8,9 C 7,8 C 7,2 C 98 % 1015,4 hPa 0,0 l/m 0 min 0 min 0 W/m 0,0 km/h (0 Bft) 100,00 %
13.11.2021 21:42 8,8 C 7,8 C 7,2 C 98 % 1015,4 hPa 0,0 l/m 0 min 0 min 0 W/m 0,0 km/h (0 Bft) 100,00 %
13.11.2021 21:44 8,8 C 7,8 C 7,2 C 98 % 1015,5 hPa 0,0 l/m 0 min 0 min 0 W/m 0,0 km/h (0 Bft) 100,00 %
13.11.2021 21:46 8,8 C 7,8 C 7,2 C 98 % 1015,5 hPa 0,0 l/m 0 min 0 min 0 W/m 0,0 km/h (0 Bft) 100,00 %
13.11.2021 21:48 8,8 C 7,8 C 7,2 C 98 % 1015,5 hPa 0,0 l/m 0 min 0 min 0 W/m 0,0 km/h (0 Bft) 97,87 %
13.11.2021 21:50 8,8 C 7,8 C 7,2 C 98 % 1015,5 hPa 0,0 l/m 0 min 0 min 0 W/m 0,0 km/h (0 Bft) 97,83 %
13.11.2021 21:52 8,8 C 7,8 C 7,2 C 98 % 1015,7 hPa 0,0 l/m 0 min 0 min 0 W/m 0,0 km/h (0 Bft) 97,87 %
13.11.2021 21:54 8,8 C 7,8 C 7,2 C 98 % 1015,6 hPa 0,0 l/m 0 min 0 min 0 W/m 0,0 km/h (0 Bft) 97,87 %
13.11.2021 21:56 8,8 C 7,8 C 7,2 C 98 % 1015,6 hPa 0,0 l/m 0 min 0 min 0 W/m 0,0 km/h (0 Bft) 97,87 %
13.11.2021 21:58 8,8 C 7,8 C 7,2 C 98 % 1015,7 hPa 0,0 l/m 0 min 0 min 0 W/m 0,0 km/h (0 Bft) 100,00 %
13.11.2021 22:00 8,8 C 7,8 C 7,8 C 98 % 1015,7 hPa 0,0 l/m 0 min 0 min 0 W/m 0,0 km/h (0 Bft) 100,00 %
13.11.2021 22:02 8,8 C 8,3 C 7,8 C 98 % 1015,6 hPa 0,0 l/m 0 min 0 min 0 W/m 0,0 km/h (0 Bft) 97,83 %
13.11.2021 22:04 8,8 C 8,3 C 7,8 C 98 % 1015,7 hPa 0,0 l/m 0 min 0 min 0 W/m 0,0 km/h (0 Bft) 100,00 %
13.11.2021 22:06 8,8 C 8,3 C 7,8 C 98 % 1015,7 hPa 0,0 l/m 0 min 0 min 0 W/m 0,0 km/h (0 Bft) 95,74 %
13.11.2021 22:08 8,8 C 8,3 C 7,8 C 98 % 1015,8 hPa 0,0 l/m 0 min 0 min 0 W/m 0,0 km/h (0 Bft) 93,62 %
13.11.2021 22:10 8,8 C 8,3 C 7,8 C 98 % 1015,8 hPa 0,0 l/m 0 min 0 min 0 W/m 0,0 km/h (0 Bft) 97,87 %
13.11.2021 22:12 8,9 C 8,3 C 7,8 C 98 % 1015,7 hPa 0,0 l/m 0 min 0 min 0 W/m 0,0 km/h (0 Bft) 97,87 %
13.11.2021 22:14 8,9 C 8,3 C 7,8 C 98 % 1015,8 hPa 0,0 l/m 0 min 0 min 0 W/m 0,0 km/h (0 Bft) 95,65 %
13.11.2021 22:16 8,9 C 8,3 C 7,8 C 98 % 1015,8 hPa 0,0 l/m 0 min 0 min 0 W/m 0,0 km/h (0 Bft) 93,62 %
13.11.2021 22:18 8,9 C 8,3 C 7,8 C 98 % 1015,8 hPa 0,0 l/m 0 min 0 min 0 W/m 0,0 km/h (0 Bft) 95,74 %
13.11.2021 22:20 8,9 C 8,3 C 7,8 C 98 % 1015,9 hPa 0,0 l/m 0 min 0 min 0 W/m 0,0 km/h (0 Bft) 95,74 %
13.11.2021 22:22 8,9 C 8,3 C 7,8 C 98 % 1015,9 hPa 0,0 l/m 0 min 0 min 0 W/m 0,0 km/h (0 Bft) 95,74 %
13.11.2021 22:24 8,9 C 8,3 C 7,8 C 98 % 1015,9 hPa 0,0 l/m 0 min 0 min 0 W/m 3,2 km/h (1 Bft) 95,74 %
13.11.2021 22:26 8,9 C 8,3 C 7,8 C 98 % 1015,9 hPa 0,0 l/m 0 min 0 min 0 W/m 3,2 km/h (1 Bft) 93,48 %
13.11.2021 22:28 8,9 C 8,3 C 7,8 C 98 % 1015,9 hPa 0,0 l/m 0 min 0 min 0 W/m 3,2 km/h (1 Bft) 95,74 %
13.11.2021 22:30 8,9 C 8,3 C 7,8 C 98 % 1016,0 hPa 0,0 l/m 0 min 0 min 0 W/m 0,0 km/h (0 Bft) 95,74 %
13.11.2021 22:32 8,9 C 8,3 C 7,8 C 98 % 1016,0 hPa 0,0 l/m 0 min 0 min 0 W/m 0,0 km/h (0 Bft) 93,62 %
13.11.2021 22:34 8,9 C 8,3 C 7,8 C 98 % 1016,0 hPa 0,0 l/m 0 min 0 min 0 W/m 0,0 km/h (0 Bft) 93,62 %
13.11.2021 22:36 9,0 C 8,3 C 7,8 C 98 % 1016,0 hPa 0,0 l/m 0 min 0 min 0 W/m 0,0 km/h (0 Bft) 91,49 %
13.11.2021 22:38 9,0 C 8,3 C 7,8 C 98 % 1016,1 hPa 0,0 l/m 0 min 0 min 0 W/m 0,0 km/h (0 Bft) 95,65 %
13.11.2021 22:40 9,0 C 8,3 C 7,8 C 98 % 1016,1 hPa 0,0 l/m 0 min 0 min 0 W/m 0,0 km/h (0 Bft) 95,74 %
13.11.2021 22:42 9,0 C 8,3 C 7,8 C 98 % 1016,0 hPa 0,0 l/m 0 min 0 min 0 W/m 0,0 km/h (0 Bft) 95,74 %
13.11.2021 22:44 9,0 C 8,3 C 7,8 C 98 % 1016,0 hPa 0,0 l/m 0 min 0 min 0 W/m 0,0 km/h (0 Bft) 93,62 %
13.11.2021 22:46 9,0 C 8,3 C 7,8 C 98 % 1016,0 hPa 0,0 l/m 0 min 0 min 0 W/m 0,0 km/h (0 Bft) 95,74 %
13.11.2021 22:48 9,0 C 8,3 C 7,8 C 98 % 1016,1 hPa 0,0 l/m 0 min 0 min 0 W/m 0,0 km/h (0 Bft) 97,87 %
13.11.2021 22:50 9,0 C 8,3 C 7,8 C 98 % 1016,0 hPa 0,0 l/m 0 min 0 min 0 W/m 0,0 km/h (0 Bft) 97,83 %
13.11.2021 22:52 9,0 C 8,3 C 7,8 C 98 % 1016,1 hPa 0,0 l/m 0 min 0 min 0 W/m 0,0 km/h (0 Bft) 97,87 %
13.11.2021 22:54 9,0 C 8,3 C 7,8 C 98 % 1016,1 hPa 0,0 l/m 0 min 0 min 0 W/m 0,0 km/h (0 Bft) 97,87 %
13.11.2021 22:56 9,0 C 8,3 C 7,8 C 98 % 1016,2 hPa 0,0 l/m 0 min 0 min 0 W/m 0,0 km/h (0 Bft) 97,87 %
13.11.2021 22:58 9,0 C 8,3 C 7,8 C 98 % 1016,1 hPa 0,0 l/m 0 min 0 min 0 W/m 0,0 km/h (0 Bft) 100,00 %
13.11.2021 23:00 9,0 C 8,3 C 7,8 C 98 % 1016,1 hPa 0,0 l/m 0 min 0 min 0 W/m 0,0 km/h (0 Bft) 97,87 %
13.11.2021 23:02 9,0 C 8,3 C 7,8 C 98 % 1016,1 hPa 0,0 l/m 0 min 0 min 0 W/m 0,0 km/h (0 Bft) 100,00 %
13.11.2021 23:04 9,0 C 8,3 C 7,8 C 98 % 1016,1 hPa 0,0 l/m 0 min 0 min 0 W/m 0,0 km/h (0 Bft) 97,87 %
13.11.2021 23:06 9,0 C 8,3 C 7,8 C 98 % 1016,1 hPa 0,0 l/m 0 min 0 min 0 W/m 0,0 km/h (0 Bft) 97,87 %
13.11.2021 23:08 9,0 C 8,3 C 7,8 C 98 % 1016,2 hPa 0,0 l/m 0 min 0 min 0 W/m 0,0 km/h (0 Bft) 97,87 %
13.11.2021 23:10 9,0 C 8,3 C 7,8 C 98 % 1016,2 hPa 0,0 l/m 0 min 0 min 0 W/m 0,0 km/h (0 Bft) 100,00 %
13.11.2021 23:12 9,0 C 8,3 C 7,8 C 98 % 1016,2 hPa 0,0 l/m 0 min 0 min 0 W/m 0,0 km/h (0 Bft) 100,00 %
13.11.2021 23:14 9,0 C 8,3 C 7,8 C 98 % 1016,2 hPa 0,0 l/m 0 min 0 min 0 W/m 0,0 km/h (0 Bft) 97,83 %
13.11.2021 23:16 9,0 C 8,3 C 7,8 C 98 % 1016,2 hPa 0,0 l/m 0 min 0 min 0 W/m 0,0 km/h (0 Bft) 95,74 %
13.11.2021 23:18 9,0 C 8,3 C 7,8 C 98 % 1016,2 hPa 0,0 l/m 0 min 0 min 0 W/m 0,0 km/h (0 Bft) 95,74 %
13.11.2021 23:20 9,0 C 8,3 C 7,8 C 98 % 1016,2 hPa 0,0 l/m 0 min 0 min 0 W/m 0,0 km/h (0 Bft) 97,87 %
13.11.2021 23:22 9,0 C 8,3 C 7,8 C 98 % 1016,2 hPa 0,0 l/m 0 min 0 min 0 W/m 0,0 km/h (0 Bft) 97,87 %
13.11.2021 23:24 9,0 C 8,3 C 7,8 C 98 % 1016,2 hPa 0,0 l/m 0 min 0 min 0 W/m 0,0 km/h (0 Bft) 97,87 %
13.11.2021 23:26 9,0 C 8,3 C 7,8 C 98 % 1016,3 hPa 0,0 l/m 0 min 0 min 0 W/m 0,0 km/h (0 Bft) 97,83 %
13.11.2021 23:28 9,0 C 8,3 C 7,8 C 98 % 1016,3 hPa 0,0 l/m 0 min 0 min 0 W/m 0,0 km/h (0 Bft) 97,87 %
13.11.2021 23:30 9,0 C 8,3 C 7,8 C 98 % 1016,3 hPa 0,0 l/m 0 min 0 min 0 W/m 0,0 km/h (0 Bft) 97,87 %
13.11.2021 23:32 9,0 C 8,3 C 7,8 C 98 % 1016,3 hPa 0,0 l/m 0 min 0 min 0 W/m 0,0 km/h (0 Bft) 97,87 %
13.11.2021 23:34 9,0 C 8,3 C 7,8 C 98 % 1016,3 hPa 0,0 l/m 0 min 0 min 0 W/m 0,0 km/h (0 Bft) 97,87 %
13.11.2021 23:36 9,0 C 8,3 C 7,8 C 98 % 1016,3 hPa 0,0 l/m 0 min 0 min 0 W/m 0,0 km/h (0 Bft) 97,83 %
13.11.2021 23:38 9,0 C 8,3 C 7,8 C 98 % 1016,3 hPa 0,0 l/m 0 min 0 min 0 W/m 0,0 km/h (0 Bft) 97,87 %
13.11.2021 23:40 9,0 C 8,3 C 7,8 C 98 % 1016,3 hPa 0,0 l/m 0 min 0 min 0 W/m 0,0 km/h (0 Bft) 93,62 %
13.11.2021 23:42 9,1 C 8,3 C 7,8 C 98 % 1016,4 hPa 0,0 l/m 0 min 0 min 0 W/m 0,0 km/h (0 Bft) 97,87 %
13.11.2021 23:44 9,0 C 8,3 C 7,8 C 98 % 1016,4 hPa 0,0 l/m 0 min 0 min 0 W/m 0,0 km/h (0 Bft) 95,74 %
13.11.2021 23:46 9,0 C 8,3 C 7,8 C 98 % 1016,4 hPa 0,0 l/m 0 min 0 min 0 W/m 0,0 km/h (0 Bft) 97,14 %
13.11.2021 23:48 9,1 C 8,3 C 7,8 C 98 % 1016,4 hPa 0,0 l/m 0 min 0 min 0 W/m 0,0 km/h (0 Bft) 94,83 %
13.11.2021 23:50 9,1 C 8,3 C 7,8 C 98 % 1016,4 hPa 0,0 l/m 0 min 0 min 0 W/m 0,0 km/h (0 Bft) 97,87 %
13.11.2021 23:52 9,1 C 8,3 C 7,8 C 98 % 1016,5 hPa 0,0 l/m 0 min 0 min 0 W/m 0,0 km/h (0 Bft) 97,87 %
13.11.2021 23:54 9,1 C 8,3 C 7,8 C 98 % 1016,5 hPa 0,0 l/m 0 min 0 min 0 W/m 0,0 km/h (0 Bft) 97,87 %
13.11.2021 23:56 9,1 C 8,3 C 7,8 C 98 % 1016,5 hPa 0,0 l/m 0 min 0 min 0 W/m 0,0 km/h (0 Bft) 97,87 %
13.11.2021 23:58 9,1 C 8,3 C 7,8 C 98 % 1016,5 hPa 0,0 l/m 0 min 0 min 0 W/m 0,0 km/h (0 Bft) 97,14 %
_ Min-Zeit 00:26 00:00 00:12 00:00 05:04 - - - - 13:20 04:56
Minimum _ 5,0 C 4,4 C 2,2 C 92 % 1010,4 hPa - - - - 0,0 km/h (0 Bft) 54,55 %
_ Max-Zeit 14:40 12:24 14:32 11:00 23:52 08:24 09:32 02:34 12:26 00:56 00:04
Maximum _ 11,0 C 10,6 C 9,4 C 99 % 1016,5 hPa 0,4 l/m 2 min 2 min 170 W/m 22,5 km/h
SO (4 Bft)
100,00 %
Durchschnitt _ 8,3 C 7,7 C 6,5 C 97 % 1012,6 hPa #5,6 l/m #14 min. #2:32 h 53 W/m 7,2 km/h (2 Bft) 97,35 %
© 2021 W. Hausmann